GFSNIL_sfc_wetblb_000.txt.gz
Wetbulb
50.26 48.63 47.97 47.25 45.16 43.38 42.83 43.00 44.03 43.01 42.93 42.86 42.93 42.02 41.70 41.20 40.98 40.86 40.76 40.44 41.39 41.66
49.30 47.76 45.93 45.86 44.22 43.09 43.40 43.13 43.40 42.79 42.22 42.05 41.74 41.26 40.67 39.59 39.65 40.27 40.14 40.32 40.63 40.73
45.86 45.36 43.96 43.48 42.61 42.36 41.96 42.16 41.90 41.33 41.03 40.60 40.24 39.97 39.18 38.09 38.69 38.83 39.10 39.83 39.32 39.53
43.84 43.65 42.63 41.86 41.31 41.13 41.60 41.04 40.77 40.22 39.44 39.28 38.81 38.61 37.51 37.30 37.78 37.39 37.30 37.84 37.93 38.00
42.29 41.80 40.79 40.56 41.01 41.80 40.38 40.70 40.10 39.60 39.20 38.65 38.07 37.65 36.86 36.17 36.71 36.08 35.57 36.09 36.09 36.16
40.72 40.42 40.02 40.51 40.94 40.29 40.30 39.50 39.28 38.98 37.97 37.51 36.97 36.39 36.20 36.03 35.62 35.16 35.16 35.00 34.75 35.02
39.90 41.03 40.63 40.48 40.32 40.04 39.60 38.82 37.88 37.64 36.97 36.30 35.88 35.97 35.75 35.48 34.38 33.90 34.47 34.46 34.40 34.17
41.91 41.81 40.92 40.37 39.56 39.20 38.72 38.02 37.17 35.87 35.19 35.18 35.49 35.69 34.08 33.53 31.94 31.35 31.22 31.82 31.93 31.58
41.67 41.33 39.61 39.00 38.32 37.80 37.01 35.58 34.93 33.87 33.74 33.33 34.95 34.91 34.82 33.30 30.23 30.18 29.69 28.99 29.82 29.92
40.86 39.57 38.31 38.13 37.20 35.56 33.56 33.65 32.28 32.35 32.49 32.00 32.27 34.44 34.18 33.06 29.83 28.84 28.75 28.21 28.22 28.58
39.53 37.77 37.25 36.48 34.97 33.01 32.32 31.49 31.12 31.11 31.42 30.59 31.76 32.57 32.21 31.46 28.81 28.12 28.27 28.40 28.77 28.58
37.37 36.32 35.78 33.92 31.91 31.50 30.75 30.55 30.50 30.48 29.73 29.05 28.98 31.40 31.08 30.32 28.61 29.02 28.69 29.32 29.66 29.58
36.79 35.52 33.71 31.90 30.50 30.54 30.78 29.58 29.65 28.95 29.75 30.33 28.10 30.39 31.45 31.24 30.01 29.57 28.86 30.55 31.11 31.82
35.95 34.03 32.82 31.44 30.84 30.03 29.27 28.67 27.87 26.23 27.47 28.07 28.83 28.65 31.33 31.94 29.35 29.29 28.11 28.40 27.82 29.08

GFSNIL_sfc_wetblb_003.txt.gz
Wetbulb
47.71 47.23 47.07 45.70 42.99 40.23 39.70 40.83 41.29 41.04 41.25 41.01 40.99 40.83 41.03 40.34 39.51 38.78 39.00 37.99 38.11 39.59
44.38 42.91 41.00 39.45 39.89 40.22 40.92 41.22 40.38 39.86 39.64 40.07 40.48 40.70 40.00 38.69 38.22 37.96 38.49 38.81 39.08 39.22
39.99 39.39 40.05 41.08 39.81 39.58 39.70 39.82 39.63 39.38 39.76 40.16 39.85 39.42 38.77 37.86 37.94 37.29 37.55 38.47 37.23 37.45
38.95 38.57 38.06 38.70 38.70 38.70 38.71 39.09 39.28 39.69 39.44 39.17 38.34 38.61 37.95 37.04 36.86 36.05 36.11 35.60 35.72 35.94
37.62 36.71 36.30 37.22 38.27 38.48 37.82 39.06 38.63 38.73 38.74 38.44 38.39 37.61 36.29 35.33 35.08 34.49 34.06 34.24 33.50 33.93
36.22 35.76 35.74 36.74 36.83 37.81 38.05 37.98 37.69 38.06 37.69 37.38 36.85 36.15 35.07 34.57 34.26 33.57 33.30 32.97 32.55 33.16
35.76 35.69 36.14 35.85 36.25 36.84 37.56 36.47 36.77 36.81 36.91 36.37 35.35 34.82 34.44 34.37 32.73 31.73 31.81 31.65 31.51 31.08
37.49 37.76 37.54 36.93 36.20 36.47 35.98 36.54 36.05 35.28 33.88 33.28 33.50 34.16 32.20 31.11 29.97 28.86 28.72 29.44 29.77 29.92
40.14 39.28 38.46 37.72 37.55 36.01 34.87 34.12 32.85 31.60 31.24 30.51 32.98 34.30 34.31 31.97 28.32 28.18 27.51 26.82 28.04 28.56
40.60 40.08 39.19 38.16 35.59 33.81 31.71 30.41 29.08 28.90 29.05 28.78 29.10 33.58 33.39 32.62 28.75 27.41 26.88 26.48 26.82 27.32
40.14 38.52 35.30 34.54 33.25 30.46 29.02 27.93 27.30 27.50 27.78 27.37 29.16 32.32 32.41 31.65 28.39 26.61 26.26 26.78 26.99 26.86
35.19 33.91 33.22 31.51 28.73 28.08 26.88 26.22 26.06 27.33 27.11 26.63 27.18 30.96 31.42 30.25 27.36 26.65 26.82 28.17 28.69 28.75
34.21 32.86 30.65 28.38 27.09 26.42 26.00 26.10 26.96 26.74 27.61 28.80 24.98 28.83 30.10 29.12 28.14 27.27 26.91 27.45 28.76 30.09
33.16 30.94 29.51 27.20 26.41 25.40 24.87 25.25 19.94 19.45 22.03 24.08 25.39 25.51 28.88 29.44 27.09 26.86 26.46 26.40 26.84 27.91

GFSNIL_sfc_wetblb_006.txt.gz
Wetbulb
45.29 44.69 44.47 43.44 42.20 40.13 40.88 39.72 40.14 39.71 39.94 40.78 41.15 40.26 40.94 41.32 40.68 39.69 37.14 37.01 37.39 37.86
40.20 40.59 38.42 37.88 38.57 39.34 39.21 39.98 39.37 40.47 41.07 42.12 42.61 42.21 40.11 38.14 37.63 38.05 37.56 36.74 36.66 37.07
37.91 38.17 38.11 37.76 37.19 37.43 38.80 40.81 41.53 42.32 42.25 42.40 40.80 39.77 38.81 37.52 36.62 36.01 36.08 36.56 35.68 36.47
36.99 37.43 36.70 36.31 36.51 37.25 38.39 39.40 40.19 39.85 39.18 39.42 38.92 38.55 36.78 35.67 35.55 34.90 34.76 34.61 34.67 34.80
36.12 35.31 35.09 35.56 36.31 36.89 37.20 38.71 38.11 37.92 38.01 37.58 37.27 36.67 35.42 34.35 34.13 32.57 32.06 32.51 32.61 33.20
34.46 34.06 34.47 35.00 35.58 36.53 36.89 36.85 36.54 36.66 36.16 36.66 36.35 35.39 34.50 33.63 32.99 32.59 32.28 32.13 31.52 31.62
33.98 33.75 34.36 34.36 35.22 36.26 36.29 35.70 35.21 35.92 36.35 35.98 35.08 33.81 33.19 32.69 30.88 29.67 29.66 29.64 29.45 29.62
36.58 36.40 35.97 35.36 35.21 37.50 36.86 35.92 35.28 34.49 33.02 32.10 31.90 32.63 30.92 29.75 28.33 27.65 27.48 28.28 28.38 28.96
39.88 39.32 38.73 38.98 38.92 37.75 35.33 34.21 32.23 30.40 29.87 29.04 31.08 33.48 33.63 31.70 27.99 27.70 27.16 26.17 27.08 27.51
40.95 40.15 38.93 38.59 37.14 33.60 30.86 29.33 28.19 27.73 27.48 27.03 27.67 32.60 32.81 32.51 28.20 27.25 26.96 26.18 26.05 26.40
38.61 36.80 34.60 32.45 30.81 28.48 28.06 27.09 26.13 26.18 26.75 26.54 27.80 31.47 31.21 31.02 27.63 26.52 26.68 26.79 26.79 26.44
32.51 32.28 31.75 28.92 26.96 26.47 25.37 24.90 24.93 26.05 25.86 26.35 26.39 29.87 29.86 28.76 24.56 25.13 25.84 27.71 28.05 28.31
33.43 31.53 29.02 27.51 26.61 25.44 24.39 24.77 25.70 26.31 25.78 26.73 23.90 27.50 28.47 27.74 26.31 24.96 24.68 25.74 26.61 28.49
31.60 30.17 28.64 26.37 25.31 24.10 23.88 23.43 18.16 17.25 20.22 22.55 24.27 24.04 27.92 28.66 26.59 25.42 25.03 25.26 25.63 26.53

GFSNIL_sfc_wetblb_009.txt.gz
Wetbulb
41.92 41.98 42.98 42.56 41.23 40.08 37.83 37.28 38.47 39.54 41.43 42.23 42.30 42.78 43.10 42.81 41.38 40.92 39.91 39.18 37.83 36.84
39.11 39.39 39.68 37.58 37.46 36.86 37.20 38.79 39.04 40.66 41.53 42.26 41.89 41.89 41.89 40.68 39.40 39.13 38.53 37.55 36.32 35.03
37.90 37.32 37.11 36.37 36.15 36.35 37.47 39.35 41.31 41.87 41.75 42.32 42.13 41.07 40.22 37.92 37.52 36.44 36.14 36.18 34.43 34.40
37.31 36.04 35.11 35.10 35.38 36.43 38.23 39.45 39.11 39.41 39.79 39.59 38.68 38.26 36.86 35.46 34.97 34.44 33.79 33.78 33.62 33.20
36.64 35.10 34.06 34.68 36.00 36.93 37.52 38.25 37.46 36.89 37.07 36.81 36.44 35.89 34.79 33.45 33.47 32.23 31.28 31.71 31.48 31.53
34.53 32.75 33.30 34.95 36.50 37.39 36.97 37.01 36.49 36.37 35.46 35.35 35.15 34.14 33.20 32.61 32.34 31.56 31.21 30.97 30.38 30.33
32.62 32.63 33.13 34.52 35.53 36.17 36.99 35.81 35.93 35.45 35.33 35.00 33.10 32.34 31.80 30.95 29.45 28.56 28.65 28.87 28.57 27.74
35.99 36.66 35.29 36.93 38.25 38.29 37.97 37.55 35.26 33.18 31.46 30.81 30.38 31.02 29.94 29.09 28.34 27.94 27.42 27.78 27.66 27.74
40.63 40.93 40.56 40.24 39.20 37.83 36.88 33.73 31.40 29.58 29.01 28.00 29.67 32.39 33.28 31.80 28.50 27.78 26.74 25.61 26.48 26.90
39.90 39.96 39.27 38.94 37.30 32.80 30.15 29.23 28.05 27.77 27.50 27.20 27.70 31.08 32.01 31.73 27.86 26.79 26.27 25.94 26.11 26.50
34.45 33.65 31.70 30.41 29.19 27.74 26.99 26.38 25.61 25.82 26.64 26.43 27.50 30.16 30.13 29.92 26.66 25.09 25.61 26.13 26.38 26.30
33.74 32.21 29.74 27.99 26.55 25.80 24.66 24.95 25.04 26.25 26.27 24.94 25.09 28.17 28.39 27.61 22.36 23.20 23.72 26.28 26.75 26.49
30.73 29.45 27.75 26.59 25.43 25.69 24.92 25.07 26.00 25.21 24.84 25.18 22.63 25.99 27.92 27.47 24.71 24.51 24.53 25.73 26.31 27.73
30.59 29.22 27.31 25.90 25.37 24.31 23.70 23.39 18.05 16.82 19.12 21.30 23.32 23.06 27.33 28.13 26.51 24.90 24.65 24.61 25.56 26.88

GFSNIL_sfc_wetblb_012.txt.gz
Wetbulb
40.85 39.78 39.73 39.88 39.39 38.40 36.76 36.17 38.46 39.69 40.26 40.50 40.66 41.01 42.21 42.02 41.34 40.42 38.66 37.06 37.83 38.20
39.38 39.07 38.50 37.52 36.56 35.99 36.32 38.95 39.23 39.59 39.91 40.48 42.30 42.24 41.57 40.57 38.55 38.54 38.14 37.62 37.83 37.53
39.49 39.86 37.42 35.76 35.59 35.19 37.08 39.09 39.25 39.50 39.17 39.06 39.42 40.82 40.91 40.00 39.49 38.18 37.72 37.20 36.13 35.42
40.30 39.47 36.23 33.95 34.49 35.74 37.40 38.62 38.02 38.35 38.25 38.68 38.02 38.23 37.02 36.03 35.45 34.55 34.20 34.06 33.31 32.69
39.04 35.75 33.42 33.29 34.33 35.39 36.30 36.97 36.84 37.27 36.62 36.00 35.47 35.28 34.63 33.40 33.08 32.16 31.03 30.96 30.65 30.67
34.87 32.02 31.91 33.16 34.38 35.92 36.05 36.85 36.77 36.77 36.49 35.66 35.55 34.28 32.96 31.47 30.91 30.26 29.97 29.59 29.10 29.03
32.73 31.62 32.28 34.32 36.48 37.14 37.41 37.44 37.13 35.97 34.80 33.23 31.45 31.16 30.85 30.75 29.69 28.72 28.77 28.80 28.14 27.58
36.71 36.56 37.25 37.34 37.54 38.31 37.56 37.76 35.47 32.52 31.29 30.64 30.09 30.50 29.98 29.37 28.51 27.85 27.78 28.21 27.96 27.88
40.96 40.07 38.49 38.97 38.66 38.14 38.12 37.78 32.75 28.72 27.94 27.36 29.10 31.72 32.49 32.28 28.96 28.72 27.85 26.30 26.39 26.61
37.64 36.14 35.40 36.31 34.54 30.46 28.45 27.64 26.70 26.68 26.92 27.02 27.44 30.42 30.81 30.64 27.94 27.15 26.55 25.48 25.51 26.02
34.19 34.02 32.18 29.52 27.75 27.03 27.03 26.32 25.66 25.77 26.64 26.00 26.13 28.96 28.96 28.98 25.98 24.84 24.93 25.39 25.56 25.54
29.96 29.17 28.78 27.38 26.39 26.03 25.36 25.07 25.23 26.77 25.77 24.47 24.24 27.33 28.11 27.69 22.94 22.73 23.36 25.53 26.29 26.41
28.96 27.72 25.99 24.97 24.35 24.96 24.57 25.26 26.31 24.57 24.06 24.35 22.29 25.52 27.84 27.26 24.42 23.52 24.71 24.92 26.40 27.38
28.10 26.65 25.01 24.33 24.18 23.57 23.05 23.62 18.55 16.53 18.75 21.08 23.00 22.57 27.04 27.46 25.81 25.07 24.85 25.31 25.18 26.45

GFSNIL_sfc_wetblb_015.txt.gz
Wetbulb
48.27 47.43 46.71 46.19 45.58 44.30 43.76 43.88 45.01 45.30 45.62 45.72 46.11 45.95 44.15 41.76 40.84 39.62 38.68 37.63 37.82 37.46
46.80 46.62 45.76 45.60 44.51 42.99 43.12 43.94 45.12 46.11 45.92 45.08 44.60 43.68 42.68 41.67 39.11 38.96 38.89 39.10 39.28 38.65
45.98 45.85 45.27 43.64 41.84 41.82 43.04 44.68 44.99 44.77 43.66 43.52 43.28 43.18 42.78 42.81 42.36 41.09 40.68 40.17 39.74 39.33
45.12 44.19 41.60 40.25 40.66 41.57 43.64 43.43 42.15 41.48 41.26 40.97 40.23 40.60 40.66 40.53 39.96 39.58 39.44 39.46 38.65 37.96
42.77 39.98 39.06 39.46 40.46 41.06 40.53 41.02 41.11 41.39 40.46 39.10 40.09 39.46 38.09 37.06 37.35 36.58 35.97 36.32 36.24 35.51
39.48 38.49 38.50 40.56 41.56 41.91 41.69 41.76 41.23 40.18 38.89 37.58 36.54 35.93 35.87 35.43 35.23 35.24 35.15 34.84 34.34 33.82
39.44 38.62 40.69 41.62 41.68 41.70 41.55 40.95 40.58 39.34 37.12 35.53 34.60 34.13 34.18 34.19 34.16 34.29 33.92 33.75 33.19 32.76
41.26 41.27 40.85 40.60 39.88 40.61 40.42 40.28 40.64 37.87 34.27 33.52 32.99 33.00 33.57 33.49 33.22 32.75 32.38 32.80 32.23 32.04
38.22 38.56 38.79 39.37 39.97 39.63 37.82 34.96 33.64 32.62 31.87 31.83 31.53 31.02 31.38 31.38 31.39 31.00 30.27 29.70 30.19 30.43
38.75 38.06 37.28 36.04 35.01 33.77 33.08 32.92 32.30 31.93 31.82 31.36 31.37 29.51 29.85 29.56 29.96 29.65 29.21 28.86 28.92 29.03
35.66 34.05 33.85 33.67 32.81 32.31 32.20 31.45 31.17 31.23 31.30 30.37 29.99 28.35 28.40 28.51 29.89 29.49 29.10 29.09 29.37 28.93
33.73 32.90 32.69 31.70 31.08 31.33 30.83 30.66 30.51 30.45 29.43 28.94 29.07 27.82 27.60 28.27 28.87 28.30 27.99 28.89 29.15 29.46
33.03 32.15 31.18 30.72 30.47 30.57 30.59 29.74 29.71 28.26 29.02 27.96 27.80 27.22 27.19 27.86 27.85 26.82 26.92 28.45 29.07 28.73
32.20 31.59 31.34 30.48 30.77 30.15 29.62 28.80 27.95 27.34 27.90 27.58 27.13 27.24 26.65 26.65 27.34 26.55 26.74 27.24 28.06 29.48

GFSNIL_sfc_wetblb_018.txt.gz
Wetbulb
52.37 51.97 51.07 50.08 48.95 48.16 48.14 48.59 49.24 49.47 50.09 49.27 47.98 47.14 45.22 43.61 42.16 40.68 40.76 40.71 40.56 40.41
51.96 50.96 49.34 48.88 48.37 47.71 48.14 47.74 48.56 48.30 47.19 47.67 46.63 45.86 45.01 43.84 43.33 43.49 42.60 41.67 41.47 40.62
50.59 49.60 48.44 47.16 46.02 46.17 46.88 47.73 47.29 46.74 45.96 44.42 43.79 43.28 42.65 42.10 42.31 42.17 41.89 42.37 42.19 41.76
48.62 47.20 45.99 45.44 45.44 45.88 46.67 46.13 45.27 44.23 43.71 42.90 42.23 41.98 42.22 41.12 41.03 40.27 40.50 41.36 41.10 40.63
46.67 45.41 45.08 44.30 44.53 45.36 44.58 44.80 44.02 43.53 42.29 42.23 41.50 40.98 39.85 38.76 39.46 38.52 38.07 38.76 39.19 38.82
45.40 44.79 44.12 44.41 44.56 44.65 44.18 43.33 43.58 42.40 41.05 40.11 40.20 39.82 39.49 39.14 38.31 38.08 38.03 37.94 37.20 36.98
44.73 44.64 41.88 42.95 43.21 42.82 42.67 41.93 41.74 41.34 40.76 39.75 37.83 36.99 37.06 36.86 36.89 37.00 36.79 36.83 36.49 36.13
42.50 41.68 42.58 42.56 42.60 42.53 42.23 41.42 40.37 38.87 37.97 37.30 36.64 35.80 34.50 34.66 34.68 34.92 34.89 35.35 35.13 35.30
42.17 42.04 41.90 41.31 40.53 39.72 38.97 38.68 38.19 37.29 36.88 36.27 35.92 30.55 30.34 31.11 32.95 33.55 33.61 33.52 34.24 34.45
41.34 39.97 39.21 38.99 38.20 37.26 37.07 37.25 36.74 36.38 36.12 35.42 35.52 29.93 29.79 29.32 31.73 32.33 33.15 33.26 32.93 32.49
39.06 38.16 37.87 37.07 36.38 36.42 36.65 35.88 35.58 35.37 34.98 34.42 34.08 29.85 29.04 28.38 31.35 32.51 32.48 32.70 32.38 32.22
38.30 36.71 36.15 35.71 35.60 35.98 35.53 35.23 34.90 34.40 33.65 33.11 33.18 30.51 28.41 28.32 30.02 30.38 30.13 29.65 30.20 30.21
37.84 36.22 35.54 35.70 35.38 35.64 35.62 34.38 34.05 32.67 32.87 31.49 31.29 29.67 28.24 28.20 29.03 27.06 27.57 29.07 29.71 30.06
37.31 36.08 36.19 35.96 36.25 35.57 34.75 33.52 31.81 31.16 30.60 31.06 30.36 29.32 28.10 27.44 26.94 27.15 26.47 27.12 28.51 31.01

GFSNIL_sfc_wetblb_021.txt.gz
Wetbulb
54.74 53.07 52.25 51.41 50.20 48.63 48.06 48.44 49.70 49.92 50.03 48.41 48.01 47.02 46.19 45.64 44.51 44.52 43.70 42.01 42.08 41.79
53.03 52.09 50.74 49.83 48.38 47.64 48.18 47.90 48.80 49.01 47.64 47.22 45.68 45.10 44.44 44.02 43.74 43.61 43.36 43.13 42.69 41.45
51.10 51.04 49.39 47.95 47.06 47.00 47.55 48.11 47.19 46.84 46.12 44.49 44.37 43.92 43.62 43.17 43.29 42.37 42.60 42.45 41.79 41.67
49.25 48.72 47.68 46.79 46.58 46.64 46.79 45.97 45.29 44.99 43.91 43.89 42.80 42.58 41.98 41.43 41.19 40.85 41.18 41.61 40.71 40.57
48.16 47.69 47.00 46.26 45.98 45.82 44.46 45.10 44.93 44.16 42.52 42.10 41.67 41.68 40.73 40.04 39.83 39.01 38.75 39.10 39.15 39.05
47.03 46.66 45.45 45.19 45.19 45.04 44.69 44.51 44.28 43.79 42.44 41.66 41.34 39.98 39.56 39.00 38.19 37.79 37.66 37.64 37.36 37.30
45.22 43.37 43.97 44.49 44.11 43.15 43.31 42.30 41.81 41.45 40.53 40.03 39.27 38.77 38.52 37.80 36.64 36.51 36.68 37.02 36.98 36.80
43.96 43.25 42.62 42.73 42.18 41.72 41.52 40.51 40.02 39.46 39.23 39.01 38.49 37.52 36.13 35.10 34.16 34.11 34.59 35.41 36.00 36.55
43.22 41.85 41.50 41.05 40.63 40.27 39.23 39.04 38.97 38.32 38.09 37.75 37.45 30.86 30.43 30.84 32.25 32.25 32.80 33.12 34.56 35.61
41.30 40.41 40.05 39.84 38.93 38.16 38.07 38.28 37.56 37.50 37.38 36.55 36.74 30.41 30.30 30.07 31.76 30.98 32.02 33.06 33.54 33.56
40.84 39.42 39.50 38.63 37.91 37.63 37.68 37.07 36.76 36.60 36.41 35.71 35.27 31.14 29.98 29.43 30.90 31.17 31.64 32.16 32.24 32.05
39.97 39.64 38.85 37.35 37.23 37.42 37.03 36.61 36.32 36.10 35.09 33.54 33.80 32.54 30.20 29.47 29.45 29.21 29.09 29.91 30.99 30.81
40.08 39.05 38.10 37.49 37.16 37.35 36.98 36.12 35.69 34.43 33.63 31.99 31.51 32.13 30.33 29.51 29.28 27.51 27.96 29.09 29.43 29.94
40.45 39.11 38.36 37.45 37.70 36.83 36.36 36.03 34.69 33.48 33.43 32.65 32.72 31.61 30.61 29.28 28.67 27.85 27.85 27.61 28.62 30.50

GFSNIL_sfc_wetblb_024.txt.gz
Wetbulb
52.43 50.96 49.45 48.50 46.88 45.45 45.15 45.24 46.44 47.31 47.19 47.19 46.87 45.58 44.69 44.14 43.68 42.61 41.98 40.15 41.15 39.99
50.71 49.88 48.26 47.25 45.99 45.10 45.17 45.75 45.80 45.90 46.04 44.49 43.30 44.33 43.56 42.38 41.85 41.39 42.67 41.94 41.64 40.70
48.84 48.34 47.07 45.83 45.16 44.78 44.93 44.96 44.45 44.18 43.49 43.41 43.99 42.76 42.36 41.64 41.06 41.59 40.66 40.53 39.92 40.13
46.83 47.06 46.31 45.53 44.88 44.86 44.39 43.79 43.58 43.62 43.25 42.72 41.93 41.45 40.62 40.32 39.73 38.68 37.51 38.49 38.56 38.35
46.35 45.87 44.44 43.83 43.59 43.89 43.65 44.26 43.33 42.65 41.94 41.62 41.02 40.61 39.61 37.98 37.57 36.97 35.97 36.15 36.56 36.53
44.65 43.66 42.14 42.38 43.19 42.94 42.52 41.84 41.24 40.58 39.20 38.86 38.54 37.76 36.41 35.94 35.39 33.93 33.51 33.72 33.55 34.20
43.57 42.30 41.71 42.15 42.12 41.70 41.32 40.06 38.65 38.19 38.05 37.86 37.09 36.79 36.38 35.47 33.02 32.02 31.96 32.49 32.54 32.80
43.34 42.49 41.66 41.26 41.26 40.72 40.27 38.72 37.93 37.13 36.89 36.74 36.36 34.43 32.28 32.07 30.97 30.11 29.88 30.30 31.63 32.45
42.91 41.87 41.05 40.70 40.37 39.11 37.65 36.94 36.65 35.86 35.69 34.89 36.24 31.49 31.28 30.06 28.33 29.73 29.18 27.89 29.46 31.42
42.64 41.24 40.21 39.81 39.00 36.65 35.67 35.57 34.88 34.63 34.62 33.78 33.53 31.73 31.23 30.49 28.49 28.17 28.00 27.94 28.49 29.50
41.93 40.33 39.50 38.93 37.32 35.85 35.18 34.18 33.68 33.68 33.89 32.27 32.85 33.38 32.14 30.45 27.45 26.56 26.75 27.35 26.89 26.72
40.98 39.67 39.09 37.85 35.71 34.97 34.35 33.64 33.41 34.06 32.39 31.02 30.36 32.75 32.74 30.76 27.05 26.77 26.03 26.71 27.10 27.44
40.95 39.57 38.14 37.36 35.78 35.07 34.91 34.30 33.76 32.04 31.81 32.35 29.63 32.97 32.47 31.14 27.64 24.51 25.54 25.79 27.02 29.05
41.09 39.08 37.97 36.96 36.09 35.24 33.34 31.39 30.87 30.26 30.12 30.22 30.36 29.88 31.69 29.28 26.61 25.52 24.73 24.44 24.78 26.55

GFSNIL_sfc_wetblb_027.txt.gz
Wetbulb
46.61 45.97 45.10 43.84 42.60 41.77 40.88 41.32 42.24 43.17 42.75 41.77 41.93 42.01 42.36 42.21 42.55 40.88 39.33 38.42 39.59 40.72
45.51 44.78 42.89 41.90 41.30 41.19 41.21 43.16 41.59 41.33 41.13 40.97 40.95 41.28 43.05 41.26 39.14 38.96 38.15 38.02 38.47 40.13
42.91 43.02 42.32 41.65 41.29 41.53 41.38 41.52 40.85 41.08 41.30 41.16 41.19 40.86 39.95 39.31 38.79 38.08 36.91 37.93 37.17 38.32
42.00 42.04 41.40 40.53 40.10 40.88 40.88 41.25 41.11 41.18 41.13 40.64 39.89 39.48 38.61 37.90 38.28 37.94 35.88 35.50 35.41 35.37
41.95 40.90 39.78 39.43 39.54 40.08 39.80 40.90 40.06 38.94 37.61 39.02 39.23 38.59 37.80 36.90 35.38 32.34 30.99 31.06 30.73 31.13
40.29 39.45 38.29 38.85 39.79 40.00 39.14 38.46 37.28 36.20 34.90 35.05 35.05 34.46 33.69 32.96 31.66 30.63 30.23 30.08 29.48 29.67
39.33 39.14 38.22 38.38 38.59 38.58 38.20 36.81 34.94 34.63 34.99 35.24 34.72 33.79 32.86 32.22 30.10 29.16 29.51 29.97 29.26 29.15
40.34 39.35 39.26 39.05 38.26 38.17 37.40 35.84 34.70 34.31 33.91 33.66 33.64 32.19 29.28 28.56 27.54 27.14 27.50 28.20 28.90 29.17
40.05 40.32 39.21 37.97 37.67 37.58 34.68 33.59 33.29 32.62 32.67 31.85 33.36 31.97 31.48 29.25 26.40 27.10 26.81 25.70 26.45 27.52
40.61 39.52 40.12 39.70 38.55 36.08 32.33 31.79 31.57 31.67 32.63 31.08 29.25 32.04 31.44 30.94 27.35 26.17 25.26 24.48 25.18 25.85
39.65 38.90 39.08 39.41 37.58 33.69 32.84 30.65 30.23 31.12 31.49 29.23 31.21 33.20 33.47 31.92 26.85 26.51 26.27 25.26 25.12 24.80
38.79 39.12 38.93 35.69 35.07 34.49 33.05 31.24 30.68 31.62 29.83 28.71 28.59 32.53 32.63 31.09 26.31 25.97 25.52 26.76 26.75 25.91
38.77 37.58 35.87 34.98 35.17 34.88 32.79 32.13 31.48 29.76 29.23 30.70 27.35 31.01 31.88 29.07 24.23 20.99 24.26 25.02 25.55 26.76
37.43 37.07 37.61 35.52 33.93 31.69 30.76 29.48 26.43 26.01 26.75 27.48 28.53 27.00 29.61 28.68 25.00 23.45 23.58 22.82 22.88 24.35

GFSNIL_sfc_wetblb_030.txt.gz
Wetbulb
45.61 43.86 42.81 41.52 40.60 39.82 39.43 39.56 40.31 41.30 40.74 40.40 40.46 40.26 39.64 39.07 39.36 39.38 37.69 36.82 37.08 37.57
43.41 42.42 41.15 40.46 40.47 39.92 40.08 41.79 40.27 40.10 40.08 40.25 40.23 39.84 39.04 38.12 37.66 37.42 36.83 36.70 36.69 36.94
41.74 41.79 40.74 40.20 40.08 39.95 39.87 40.24 39.70 39.37 40.09 39.89 39.78 39.51 38.23 36.93 36.83 35.82 35.72 36.94 35.76 34.35
40.90 40.78 40.19 39.03 38.92 39.35 39.38 39.40 39.54 39.43 38.82 39.35 38.52 38.01 36.93 36.37 36.29 35.03 32.58 31.13 30.31 30.32
41.02 40.28 39.26 38.49 38.57 38.44 38.19 39.33 39.37 37.63 34.96 34.88 34.95 34.21 33.96 33.33 31.16 29.68 29.08 29.30 29.05 29.67
38.79 39.29 38.13 37.55 37.98 38.72 38.65 38.07 37.98 35.70 33.92 34.05 33.88 32.56 31.46 30.91 30.03 29.16 28.98 29.05 28.68 28.30
38.52 37.59 37.79 37.30 38.09 39.45 39.42 38.99 36.47 34.99 34.81 34.27 32.77 31.68 30.98 29.88 27.82 27.16 27.82 28.29 27.91 27.24
38.78 38.62 39.12 37.47 38.65 39.48 40.05 38.98 36.57 34.69 33.57 32.71 31.43 31.21 27.94 28.08 27.36 26.85 26.70 27.40 27.28 27.02
40.21 39.50 38.57 38.62 39.05 38.99 38.78 38.44 34.19 33.07 32.33 31.15 31.87 32.29 31.95 29.72 26.58 27.03 26.36 25.38 25.70 25.75
38.58 38.07 37.96 38.56 38.42 38.56 37.44 33.64 32.45 31.83 31.60 29.86 28.50 32.51 32.77 33.39 28.57 26.52 25.54 25.00 24.74 25.69
37.68 37.20 37.17 37.23 37.02 34.32 33.32 33.47 33.05 31.21 30.27 29.34 30.43 32.51 33.20 32.56 27.85 26.00 26.16 25.92 25.49 24.71
36.72 36.93 36.22 34.78 34.38 33.81 34.52 34.12 31.53 30.89 28.59 27.27 27.25 31.45 30.68 27.89 23.82 24.70 23.84 25.31 25.03 24.61
36.68 35.87 35.33 34.43 35.81 35.40 35.02 30.87 30.21 28.32 27.41 29.23 25.51 28.81 28.98 27.73 22.74 17.52 22.26 23.26 23.59 25.10
34.46 34.62 34.61 34.67 33.43 32.62 29.77 28.26 26.25 24.84 25.16 25.94 25.66 24.45 26.94 26.31 21.20 21.67 21.98 21.16 21.71 23.59

GFSNIL_sfc_wetblb_033.txt.gz
Wetbulb
43.92 42.55 41.66 40.81 39.90 39.03 38.69 38.89 39.47 40.07 40.06 39.77 39.61 39.38 38.76 37.86 37.51 37.11 35.66 35.04 34.74 35.03
43.04 41.73 41.00 39.82 39.23 39.15 39.26 40.37 39.40 39.45 39.24 39.01 39.08 38.96 37.97 37.01 36.35 35.62 34.97 34.53 34.25 34.12
40.47 41.31 40.42 39.51 39.42 39.19 38.88 38.98 39.05 38.48 38.88 38.62 38.51 38.05 37.12 35.76 35.59 34.37 33.97 34.54 32.03 30.17
40.24 40.09 39.41 38.90 38.72 38.63 38.37 38.33 38.79 39.39 38.08 38.22 38.43 37.51 36.47 35.18 34.48 32.19 29.26 28.60 28.39 28.45
39.49 39.66 38.88 38.22 38.39 38.27 37.08 38.52 38.55 37.55 35.94 35.38 35.57 34.88 32.34 31.79 30.48 29.13 28.10 27.78 27.52 27.84
37.09 37.03 37.29 37.88 37.70 37.49 37.90 37.37 37.34 38.47 36.45 35.60 34.65 33.38 31.81 30.84 29.40 28.06 27.80 27.35 27.21 27.09
36.97 37.23 36.93 37.18 36.68 36.70 37.61 37.01 37.38 38.19 36.17 35.70 34.16 32.68 30.86 29.24 27.46 27.06 27.62 27.99 27.51 26.88
37.75 37.69 36.88 36.41 36.88 37.38 37.76 37.77 37.77 37.46 36.53 33.70 33.00 30.76 27.86 28.00 27.54 26.90 26.48 27.31 27.33 27.08
37.75 37.49 37.05 37.00 36.67 36.51 36.21 37.56 38.00 32.15 30.88 31.35 31.74 32.51 32.52 31.28 27.24 27.41 26.87 25.58 26.48 26.26
36.86 36.19 36.11 36.36 36.20 35.82 35.31 36.93 31.91 32.17 32.09 30.18 29.56 32.63 32.97 32.51 29.31 27.47 26.57 25.56 25.34 25.30
35.10 35.44 35.42 35.03 33.98 31.62 31.67 34.38 34.80 31.46 29.87 28.12 29.09 31.82 30.94 29.06 24.83 23.94 24.50 23.95 23.89 23.83
34.50 34.78 34.20 33.37 34.25 34.84 35.00 34.00 29.53 29.44 28.00 26.53 26.07 29.66 29.21 26.87 22.97 23.05 22.34 23.67 23.94 23.63
33.29 33.34 33.13 32.24 32.25 35.06 33.48 29.46 28.45 27.63 26.63 27.72 23.56 27.45 27.35 25.52 20.71 15.41 21.42 22.10 22.74 24.30
31.89 30.86 31.50 33.71 33.80 34.64 30.43 27.90 25.15 24.06 24.70 24.60 24.72 23.23 26.22 25.84 19.95 20.26 21.19 21.18 21.50 23.45

GFSNIL_sfc_wetblb_036.txt.gz
Wetbulb
43.52 42.00 41.50 40.94 39.85 39.17 38.43 38.43 38.73 38.89 39.67 39.03 38.92 38.74 38.30 37.49 37.16 36.33 35.37 34.13 34.32 34.23
42.45 41.44 40.57 39.87 38.48 38.28 38.53 39.66 38.88 38.41 38.32 38.61 38.35 38.33 38.11 37.15 37.53 36.50 35.63 34.51 34.60 33.36
39.69 39.60 39.80 38.98 38.67 38.51 38.58 38.46 37.80 37.83 37.82 37.86 39.12 38.59 38.60 37.44 36.15 35.40 34.91 34.58 31.93 29.49
38.17 38.85 38.85 38.29 38.24 38.22 38.14 37.77 37.45 37.66 37.58 38.33 36.26 37.58 37.33 36.32 35.07 34.18 31.17 29.37 29.01 28.67
37.13 37.50 37.51 37.53 37.95 37.61 36.56 36.95 36.81 36.84 35.84 34.38 34.85 35.10 34.07 32.83 32.17 29.49 28.80 28.36 27.72 27.63
36.19 35.90 35.55 35.61 36.00 36.14 36.03 36.50 36.04 35.90 35.58 36.16 36.97 35.00 33.48 31.93 29.77 28.71 28.26 27.50 27.33 27.32
35.76 35.50 35.30 35.29 35.61 35.90 36.23 35.82 35.20 36.96 37.40 36.91 35.12 32.63 31.78 29.79 28.26 28.18 28.29 28.00 27.69 27.17
36.09 35.96 35.95 35.94 35.86 35.98 36.21 36.42 37.27 38.26 37.29 33.54 31.72 31.12 29.01 29.01 28.71 27.71 27.04 27.44 27.70 27.85
36.27 36.09 35.46 35.14 34.81 34.74 34.68 34.84 37.90 33.04 32.07 30.23 31.34 32.44 32.99 32.44 28.94 28.39 27.46 26.60 26.72 26.38
35.35 34.16 34.25 34.40 34.18 32.37 30.80 32.29 33.33 32.33 31.32 29.21 29.28 32.55 32.19 30.00 26.44 24.91 24.16 23.55 23.13 23.49
33.54 33.25 33.73 32.97 32.77 31.29 33.64 34.98 34.92 31.02 27.89 26.96 28.85 30.93 29.99 28.51 24.43 23.05 23.27 22.92 22.79 22.87
32.56 32.10 31.95 31.03 30.81 33.77 34.18 33.03 28.40 27.45 26.81 25.58 24.98 28.50 28.00 26.13 22.91 22.55 22.12 23.22 23.20 23.63
31.53 30.61 29.77 29.59 33.49 33.48 33.54 31.58 28.23 27.42 26.31 26.60 23.45 26.41 26.87 25.74 20.83 15.16 21.15 22.60 23.34 24.37
30.48 29.56 29.91 31.83 33.32 33.27 31.05 28.85 25.61 23.81 24.68 24.42 24.60 23.16 25.93 26.55 21.24 20.67 22.15 21.70 21.67 23.14

GFSNIL_sfc_wetblb_039.txt.gz
Wetbulb
50.26 50.84 49.63 48.38 47.87 47.46 46.81 46.71 47.10 46.44 46.09 45.67 45.39 45.25 44.95 44.74 44.33 43.77 43.03 42.06 41.44 40.56
48.99 47.77 47.21 47.15 47.01 46.13 46.11 45.22 45.70 45.99 45.28 45.01 44.99 44.95 44.68 43.89 42.29 42.09 41.95 41.94 41.17 40.27
45.84 45.46 45.70 46.06 45.55 45.48 45.81 45.33 44.94 44.65 44.54 44.25 44.38 44.29 43.20 42.41 41.60 40.81 41.12 40.25 39.15 37.97
44.97 44.74 44.93 44.49 44.23 44.07 44.06 43.74 43.29 43.30 43.10 43.00 42.01 40.87 40.52 40.02 39.18 38.25 38.22 36.86 35.89 35.55
43.91 43.60 43.04 42.92 42.96 43.37 42.59 43.09 42.61 42.52 41.69 40.47 39.63 38.72 38.47 37.74 37.50 35.84 34.99 34.42 34.56 34.29
42.85 42.28 41.92 42.05 42.27 42.20 41.54 41.12 41.41 41.48 40.92 39.10 39.62 38.41 38.62 37.37 35.46 34.73 33.80 34.15 33.76 33.40
42.05 41.46 41.50 41.70 41.57 40.86 40.68 39.97 40.15 41.32 41.09 40.14 38.63 38.36 36.76 35.19 34.56 34.34 34.33 34.05 33.34 32.84
41.83 41.39 40.83 40.29 40.49 39.86 39.85 39.36 39.66 39.93 38.81 37.53 36.18 35.46 34.75 34.71 34.54 33.77 32.57 32.41 31.47 30.91
40.69 39.92 39.38 39.47 38.87 38.68 38.28 37.55 37.14 35.05 35.68 34.33 34.70 33.36 33.00 32.53 32.38 30.75 29.26 28.24 28.54 28.42
38.81 38.30 38.29 38.21 37.58 37.51 37.23 37.19 35.46 35.36 35.00 33.59 33.77 32.08 31.23 29.45 30.26 28.69 27.91 27.23 26.81 26.64
37.47 36.93 36.89 36.36 35.91 36.56 36.14 34.76 35.65 33.92 32.74 32.56 32.05 29.87 29.09 27.94 29.13 27.99 27.37 26.84 26.54 26.29
36.72 35.80 35.28 34.68 35.06 34.97 34.16 34.48 33.91 33.34 31.76 31.10 30.16 28.17 27.61 27.91 28.00 26.86 26.26 26.71 26.96 26.42
36.07 34.91 34.54 34.60 34.63 34.41 34.19 33.57 33.67 31.25 31.21 28.28 28.90 26.12 26.92 27.52 28.45 26.39 26.09 26.67 26.39 25.07
35.34 34.61 34.42 34.12 34.94 35.18 34.20 33.12 31.81 29.77 30.28 29.10 28.25 27.88 26.11 26.57 27.87 26.52 25.46 24.79 24.64 25.26

GFSNIL_sfc_wetblb_042.txt.gz
Wetbulb
51.98 53.20 51.88 51.26 51.02 50.34 49.71 49.82 50.13 49.90 49.39 48.47 48.13 47.87 47.52 46.91 46.37 45.83 44.66 43.55 42.67 40.70
53.02 51.35 50.70 50.64 50.86 50.41 49.91 48.39 47.24 47.16 46.31 46.31 46.57 46.87 46.84 45.91 45.01 44.69 43.57 42.78 41.95 40.38
50.05 50.22 50.58 51.10 48.90 47.07 46.42 46.03 45.77 45.40 45.16 45.03 45.46 45.90 45.68 44.73 44.40 42.69 42.15 41.29 40.71 40.39
49.81 49.34 49.29 48.07 46.05 45.52 45.60 45.13 44.50 44.40 44.44 44.23 44.08 44.50 43.36 43.02 42.76 40.45 40.45 40.15 39.10 38.88
47.72 47.31 46.22 45.02 44.72 45.67 44.54 44.78 44.11 43.57 43.32 43.69 43.31 42.47 41.54 40.36 40.38 39.48 38.62 38.97 38.52 37.85
45.97 45.07 44.43 44.31 44.87 44.51 44.02 43.58 43.38 43.06 42.92 42.51 42.23 41.33 40.29 39.95 39.86 39.43 38.79 38.27 37.65 37.10
44.59 44.58 44.48 44.38 44.04 43.62 43.33 42.59 42.31 42.39 42.34 40.51 40.66 40.26 39.80 39.09 38.69 38.69 38.15 37.98 37.43 36.38
44.36 44.77 43.95 43.36 43.15 43.07 42.36 41.92 41.41 41.00 39.90 39.62 39.85 38.60 38.60 37.92 37.61 37.06 36.54 36.07 34.93 34.33
43.78 43.19 42.65 42.42 42.05 41.63 41.36 41.19 40.82 38.36 38.68 37.73 37.66 33.27 31.89 32.35 36.19 35.63 34.17 32.97 33.02 33.15
41.93 41.37 41.33 41.16 40.65 40.02 40.01 39.82 37.85 38.12 37.05 36.20 36.50 31.52 30.69 29.83 34.27 33.59 32.92 32.05 31.68 31.06
40.84 40.30 40.49 39.93 39.33 39.52 39.44 37.13 37.92 36.94 36.41 36.35 35.35 29.89 28.86 28.41 33.44 33.04 32.35 31.74 31.26 30.97
40.17 39.52 39.01 38.33 38.42 38.60 36.01 36.73 35.52 36.48 35.99 35.69 35.31 28.75 27.67 28.58 32.40 31.88 31.16 31.26 31.30 29.89
39.81 38.94 38.23 38.33 37.65 37.15 36.04 35.10 35.75 34.50 35.85 31.83 34.20 28.22 27.12 28.39 31.71 30.20 30.20 30.96 30.52 28.27
39.18 38.52 38.43 37.82 37.62 36.00 35.82 35.82 34.17 32.94 34.49 34.60 33.90 32.90 27.10 26.75 29.58 29.77 28.98 28.81 28.89 29.38

GFSNIL_sfc_wetblb_045.txt.gz
Wetbulb
54.84 54.22 53.44 51.62 51.30 50.84 50.46 50.52 51.08 50.19 49.00 47.70 47.09 46.72 47.47 47.15 46.71 46.56 46.01 44.30 43.80 43.05
53.34 52.09 50.88 51.11 51.59 50.94 51.00 49.34 48.12 47.51 46.52 46.43 46.08 45.85 45.91 46.28 45.81 45.70 44.95 43.53 43.43 42.41
50.79 50.49 51.13 50.89 49.91 48.85 47.93 47.05 46.30 45.90 45.72 45.31 45.46 45.48 45.23 44.86 44.80 43.69 43.40 42.60 42.26 41.20
49.85 50.32 50.23 49.12 47.54 46.66 46.49 46.09 45.26 44.99 44.61 44.17 44.21 44.62 44.39 43.68 42.67 41.93 41.64 42.18 40.92 39.87
49.84 49.29 48.18 46.86 46.02 46.58 45.61 45.75 45.00 44.29 43.90 43.82 43.76 43.92 42.44 40.25 41.32 40.90 40.24 39.65 39.44 38.48
48.01 47.20 46.23 45.65 45.93 45.69 45.14 44.45 44.25 43.79 43.22 42.85 43.34 42.65 41.43 39.91 40.72 39.87 39.12 38.67 38.02 37.82
46.36 46.10 45.55 45.68 45.22 44.68 44.33 43.56 43.44 43.27 42.73 42.43 41.21 40.79 40.43 40.02 38.88 38.48 38.52 38.68 38.12 36.88
45.35 45.79 45.50 44.97 44.20 43.87 43.81 43.09 43.03 42.42 41.93 41.26 39.91 38.93 38.40 38.57 38.12 37.33 37.32 37.10 36.55 35.95
44.29 44.30 44.05 43.44 43.25 43.05 42.40 42.42 42.49 41.44 40.27 38.29 38.39 33.02 32.36 32.39 36.07 36.07 35.63 34.61 34.80 34.71
43.17 42.30 42.33 42.36 42.19 41.19 40.96 41.66 40.86 39.25 37.83 36.75 37.51 32.53 30.99 30.17 33.91 34.62 34.87 34.12 33.51 32.89
41.86 41.58 41.71 41.55 40.97 40.90 41.09 40.48 38.73 38.19 37.18 36.17 36.19 31.82 29.85 28.99 32.88 34.79 34.54 34.02 33.20 32.48
41.31 40.77 40.66 39.98 40.14 40.44 39.82 38.06 36.49 36.43 36.20 35.96 35.87 30.61 29.47 28.65 32.81 33.39 32.91 33.10 33.03 32.04
41.03 40.42 39.79 39.99 40.07 39.89 39.15 36.45 36.66 35.49 35.53 36.18 35.37 30.90 29.89 28.90 31.84 31.34 31.26 32.36 32.20 28.54
40.62 40.23 40.34 40.09 39.71 39.19 37.96 36.01 35.63 34.34 34.93 35.32 34.59 34.41 29.94 28.51 29.93 30.51 29.93 29.60 30.12 31.14

GFSNIL_sfc_wetblb_048.txt.gz
Wetbulb
55.14 52.94 51.58 50.16 49.86 49.08 48.15 48.03 48.60 46.81 45.64 44.93 44.51 43.55 43.00 41.98 41.91 42.05 41.64 40.66 40.62 40.12
52.62 50.96 49.42 49.74 49.71 48.81 48.57 47.36 45.50 44.40 43.96 43.61 43.46 43.18 42.57 41.40 41.23 42.10 40.40 39.50 39.29 38.62
51.29 50.12 50.45 49.29 48.33 47.10 45.39 44.96 44.07 43.41 43.12 42.72 42.45 42.11 41.69 40.92 41.17 39.38 39.50 39.44 38.98 37.96
48.78 49.89 48.73 48.55 46.24 44.67 44.25 43.96 43.45 43.06 42.40 41.89 41.48 41.55 40.88 40.57 39.24 37.95 38.19 38.46 38.01 38.12
48.80 48.90 48.17 46.22 44.94 44.41 43.38 43.97 43.30 42.83 42.25 42.19 41.55 40.93 40.31 38.48 38.57 38.14 37.38 37.85 36.48 35.69
48.62 47.41 45.87 44.31 44.14 44.41 43.32 43.33 42.68 42.28 41.68 41.09 40.73 39.82 39.01 38.80 38.12 37.96 36.52 35.93 35.34 35.25
46.82 45.63 44.41 44.09 44.43 43.52 43.18 42.38 41.93 41.73 41.33 40.79 38.98 38.94 38.89 38.75 36.46 36.21 36.21 36.11 36.05 34.19
45.26 45.29 44.47 44.48 43.49 43.14 42.90 41.97 41.83 41.26 40.85 39.75 38.57 36.64 34.78 35.33 34.64 34.29 33.72 34.49 34.06 32.49
44.13 43.85 43.82 42.76 42.65 42.03 41.58 41.00 40.71 39.95 38.84 37.22 37.94 32.93 32.74 31.63 30.79 32.41 31.74 30.56 31.01 31.05
42.95 42.42 41.82 41.85 41.45 40.67 39.65 39.87 39.04 37.37 36.83 36.84 36.48 33.65 31.82 30.54 29.50 29.82 30.47 29.77 29.33 29.98
41.45 41.11 41.32 40.97 40.29 39.55 39.34 38.46 37.29 36.03 36.30 36.34 36.56 34.01 31.99 30.10 27.72 29.11 30.15 30.23 29.49 28.16
40.93 40.09 40.05 39.19 38.96 39.29 38.40 37.43 35.49 35.90 35.49 34.82 35.29 33.46 31.63 28.93 28.17 28.59 29.00 29.98 29.75 29.43
40.16 39.50 38.76 38.87 38.79 38.62 37.71 36.46 35.20 34.48 35.10 35.16 33.05 33.43 31.61 30.19 27.53 26.81 27.68 28.26 28.32 27.56
39.75 39.05 38.92 38.77 38.60 37.46 36.46 34.47 32.84 32.44 32.51 32.78 33.09 33.30 32.45 31.20 27.50 26.73 27.19 26.47 26.18 26.11

GFSNIL_sfc_wetblb_051.txt.gz
Wetbulb
50.07 48.25 46.69 46.55 47.42 46.68 46.15 46.37 42.72 41.62 41.18 40.91 41.11 40.55 39.80 38.70 38.48 38.50 37.93 37.83 37.83 38.49
47.05 46.25 46.50 46.69 46.59 46.64 45.08 44.82 42.07 40.40 39.90 40.03 39.98 40.15 39.28 38.47 37.80 37.54 36.87 36.85 36.70 36.48
46.30 46.92 46.76 47.15 46.91 45.37 43.43 42.92 42.04 40.37 39.78 39.75 39.81 39.37 38.92 37.57 37.83 36.14 35.74 37.09 36.08 35.66
46.95 47.95 47.48 47.00 45.15 43.18 42.78 42.24 40.79 40.42 40.43 40.07 39.33 38.86 38.10 37.51 37.04 36.50 35.80 35.76 35.63 35.44
48.10 47.65 47.14 46.11 43.47 43.06 42.01 41.73 40.77 40.42 40.32 39.71 39.21 38.93 37.89 35.85 36.88 35.99 35.67 35.83 34.55 33.85
47.17 47.20 44.82 43.66 42.67 42.49 40.96 40.99 39.62 40.99 40.25 39.32 39.37 37.19 37.35 36.78 36.61 35.85 35.73 35.07 33.98 33.58
46.53 44.78 42.49 42.34 42.14 40.61 40.93 39.83 40.34 40.45 40.21 39.06 37.15 37.18 36.59 36.37 34.69 34.45 34.73 34.76 34.40 32.23
42.90 42.90 43.06 42.22 41.19 41.21 40.99 40.54 40.38 40.16 38.88 37.34 36.64 35.51 33.37 33.31 32.76 31.47 31.11 30.90 31.75 30.13
42.64 42.58 41.21 40.24 39.82 40.18 39.62 39.13 39.38 38.36 37.00 35.43 36.78 34.14 33.57 32.02 29.50 30.03 29.20 27.89 28.87 28.52
42.10 40.65 39.89 39.97 39.72 38.87 38.06 38.28 37.50 36.28 35.76 35.00 34.73 34.55 33.65 31.88 28.02 27.61 27.45 27.22 27.24 28.27
39.72 39.07 39.18 39.62 38.99 37.86 37.70 36.86 35.67 34.36 34.46 34.19 35.15 35.12 34.28 31.97 26.79 26.97 27.46 27.89 27.29 26.41
39.37 38.85 38.72 37.88 37.17 37.18 36.28 35.34 34.36 34.66 34.02 32.85 32.54 34.74 34.06 31.18 27.17 27.37 27.14 28.22 28.07 27.84
39.37 38.52 37.36 36.96 36.10 36.29 36.06 34.81 33.61 32.71 32.63 33.83 31.72 34.11 33.98 31.59 27.36 26.63 26.59 26.84 26.91 28.06
38.82 37.45 36.68 36.23 36.47 35.70 34.37 32.41 30.67 30.99 30.96 30.97 30.97 31.47 34.39 33.24 27.89 26.56 26.25 26.23 24.94 24.72

GFSNIL_sfc_wetblb_054.txt.gz
Wetbulb
49.21 47.99 47.33 48.00 47.11 46.49 45.99 44.07 43.22 41.78 42.37 41.41 41.40 40.36 37.85 37.09 36.61 37.11 36.17 35.68 36.02 36.37
47.46 46.46 47.66 47.27 46.64 45.16 43.98 43.48 42.38 42.06 41.43 40.03 38.63 38.20 37.85 36.82 36.49 35.78 34.80 34.74 35.42 35.36
47.63 46.75 47.66 47.84 46.14 43.99 43.46 43.01 42.54 41.00 40.04 39.15 38.66 38.61 38.54 37.26 36.51 35.73 35.16 35.97 35.44 34.71
47.76 47.72 47.49 46.05 44.33 43.18 43.07 42.34 41.49 41.19 39.37 39.16 38.93 39.77 38.02 36.50 36.93 36.80 35.49 35.34 35.04 35.21
47.73 48.43 47.43 44.96 43.82 43.81 41.98 42.16 41.13 39.90 39.09 39.32 38.87 39.17 37.38 35.59 35.39 35.29 34.59 34.74 34.28 33.79
46.78 47.18 45.88 45.02 42.88 42.17 40.98 39.49 38.95 39.11 39.14 38.84 38.92 36.65 36.55 36.44 36.17 35.40 34.81 34.42 33.17 33.42
46.88 46.80 43.55 42.03 40.95 40.43 40.60 38.58 38.80 39.84 39.45 38.77 36.61 36.45 36.05 35.40 33.70 33.22 33.29 32.70 31.45 31.07
42.86 41.44 42.14 41.34 39.24 40.52 39.45 39.55 40.29 39.83 38.28 37.15 36.34 35.30 34.38 33.69 32.08 30.83 30.41 30.40 30.63 30.11
42.07 41.77 41.01 39.41 39.28 38.59 39.56 39.33 38.60 37.71 36.90 34.77 36.04 35.37 34.77 32.86 29.74 29.69 28.45 27.32 28.34 27.93
42.10 40.25 39.57 39.53 39.15 38.48 37.45 37.38 36.61 36.25 35.56 34.81 34.38 35.33 35.32 33.85 28.31 27.66 27.17 26.35 26.87 27.52
38.89 38.51 39.52 39.13 38.20 36.73 36.63 35.82 35.08 34.41 34.21 33.34 34.14 35.49 35.53 34.20 27.84 26.23 26.61 27.09 27.78 26.46
39.96 39.41 38.64 36.73 36.26 35.85 34.64 34.25 33.67 33.94 33.03 31.88 31.38 34.45 34.98 33.43 26.92 25.85 26.63 28.90 28.74 27.50
39.85 37.77 37.12 36.33 35.23 34.35 33.87 33.48 32.65 31.82 31.54 32.95 30.85 33.37 34.83 33.62 26.08 27.78 27.87 28.20 27.50 29.43
38.11 36.88 36.19 34.47 33.99 33.58 32.43 30.88 30.12 30.04 30.04 30.38 30.90 30.23 33.85 34.82 30.03 28.95 27.71 26.65 26.14 25.62

GFSNIL_sfc_wetblb_057.txt.gz
Wetbulb
50.63 49.72 48.43 47.83 46.97 45.45 45.00 43.11 43.37 43.70 42.19 42.19 42.20 40.79 38.94 37.28 35.94 36.23 35.03 34.59 34.56 34.99
49.34 47.36 46.03 46.86 46.18 43.93 43.75 44.90 43.97 42.37 42.27 41.68 40.52 39.54 38.20 36.55 35.95 35.29 34.37 33.71 34.18 34.22
46.80 47.35 46.76 45.76 43.79 44.12 44.30 44.13 42.48 41.78 41.44 40.30 39.56 38.52 38.28 37.42 35.79 35.50 34.72 35.00 34.04 34.16
45.75 46.25 45.35 44.44 44.29 44.38 43.67 43.51 42.98 42.20 40.90 39.99 38.40 37.88 36.98 36.34 35.72 35.03 34.63 34.60 34.60 34.53
46.30 46.15 45.93 44.65 43.33 44.08 43.62 43.39 42.46 41.68 39.13 37.88 38.30 37.99 36.07 34.86 34.61 34.24 33.74 34.16 33.40 33.23
47.17 46.37 44.05 43.35 43.86 43.17 42.79 41.91 39.57 38.07 37.70 38.42 37.13 36.19 35.17 34.92 34.60 34.85 34.47 33.83 32.72 32.56
45.97 45.81 45.27 43.58 41.06 40.61 40.56 39.37 39.05 39.16 38.22 37.81 36.65 35.62 35.11 35.28 33.77 32.83 32.84 32.29 30.55 29.78
46.49 44.82 41.24 40.12 39.47 40.78 40.42 39.84 39.58 38.94 38.01 36.62 35.80 35.00 33.41 33.08 31.95 30.41 29.67 29.57 29.23 28.80
41.81 41.57 41.05 41.04 39.67 39.38 39.37 39.47 38.72 37.18 36.21 34.37 34.90 35.35 35.68 33.46 29.94 29.87 28.76 27.34 27.45 27.83
41.64 39.89 39.38 39.26 39.32 38.84 37.95 37.58 36.65 35.91 35.11 34.01 33.69 35.77 36.15 35.22 30.28 28.63 27.56 26.26 26.39 27.48
39.45 39.44 40.42 40.73 40.13 37.69 36.67 34.54 34.02 33.94 33.86 32.86 33.34 35.28 36.00 35.20 30.66 27.49 26.88 26.33 26.66 28.01
41.14 40.97 40.58 38.28 36.74 35.63 33.39 32.58 32.70 33.07 32.51 31.34 31.23 34.14 34.89 33.97 29.60 27.61 26.56 27.17 27.36 28.45
39.98 38.85 37.09 35.52 33.94 33.19 32.23 32.10 31.56 30.73 30.54 32.25 30.53 33.44 34.57 34.02 28.06 27.07 27.70 27.47 28.52 31.26
37.34 36.64 35.26 33.21 32.20 31.90 30.72 29.91 29.33 29.45 29.56 29.71 30.27 30.58 34.30 34.81 29.30 28.74 29.80 28.66 27.55 27.36

GFSNIL_sfc_wetblb_060.txt.gz
Wetbulb
54.29 50.76 48.85 48.61 48.67 44.61 43.31 42.22 42.41 44.17 43.46 43.49 42.67 41.43 40.30 39.45 38.38 37.71 35.55 34.75 34.62 34.81
52.53 50.44 47.77 46.36 45.62 44.23 43.60 43.50 44.26 41.96 42.40 42.63 41.67 40.89 40.17 37.57 36.11 35.46 34.69 34.22 33.83 33.87
50.70 48.03 46.77 46.59 44.21 43.01 44.42 44.26 42.75 42.93 42.78 41.30 41.15 40.03 38.99 36.36 35.98 35.02 34.32 34.31 33.73 33.45
45.63 45.21 45.26 44.88 44.09 44.82 43.96 43.46 43.59 42.45 42.49 41.14 40.52 37.46 36.91 35.85 35.46 34.79 34.61 34.63 33.84 34.21
45.10 44.80 45.12 43.94 44.75 44.97 43.81 44.18 43.58 43.39 41.71 40.49 37.85 36.65 35.93 34.92 35.14 34.17 33.24 34.19 34.06 33.45
45.54 45.00 44.45 44.49 44.35 44.83 44.08 43.50 42.32 41.69 40.25 39.10 36.94 35.99 36.07 35.30 35.15 34.63 34.69 34.05 32.85 32.68
45.44 45.45 44.40 44.55 43.80 43.02 42.73 41.40 40.52 40.16 39.58 37.92 37.08 36.89 36.23 35.11 34.28 33.47 33.21 32.80 32.11 30.99
46.77 45.88 44.34 42.10 41.91 41.93 41.46 40.62 39.70 39.13 38.28 37.92 37.22 35.92 34.60 33.45 32.19 31.03 30.51 30.52 30.02 29.48
44.44 42.37 41.69 41.32 40.77 40.00 39.13 38.95 39.19 38.36 37.57 36.62 35.84 35.68 36.04 33.45 30.79 30.57 29.95 29.10 29.01 28.11
41.66 40.39 39.58 39.39 39.77 40.15 40.12 39.74 38.12 37.04 35.71 34.21 33.45 35.58 36.52 35.84 31.35 30.16 29.43 28.35 27.48 27.59
39.34 39.97 41.14 40.94 40.57 40.19 38.64 36.22 33.89 33.46 32.80 32.02 33.02 35.15 36.01 35.73 32.14 30.24 29.16 28.37 27.38 26.34
40.92 40.35 40.20 40.22 39.02 35.77 33.42 32.45 31.59 31.30 31.17 30.77 31.29 34.24 34.79 34.15 30.84 30.25 29.68 29.26 27.87 27.21
40.69 40.90 38.08 35.45 34.13 32.66 31.01 30.69 30.28 30.21 30.31 31.47 30.23 33.04 34.41 34.15 30.01 28.99 29.53 28.55 28.36 30.35
36.77 35.03 33.80 31.79 30.92 30.54 29.71 28.95 28.60 29.01 29.20 29.54 29.92 30.35 33.73 34.66 31.36 30.05 29.58 28.50 29.98 29.22

GFSNIL_sfc_wetblb_063.txt.gz
Wetbulb
57.01 56.71 55.59 52.81 53.33 52.73 51.07 49.07 49.11 48.40 47.80 47.59 46.94 44.10 43.43 44.37 42.63 43.17 44.00 43.71 43.83 43.47
58.28 57.07 54.68 53.40 54.82 53.26 51.25 48.60 47.77 47.68 47.78 46.04 45.68 43.64 42.72 42.52 41.46 44.07 44.17 43.71 43.18 42.40
58.36 57.09 55.07 53.54 52.94 51.27 48.62 47.96 47.45 46.51 44.39 45.21 43.92 43.20 43.47 41.57 43.46 43.05 43.16 42.70 42.05 41.65
58.53 56.19 53.76 52.02 51.08 49.04 48.22 46.34 44.46 45.64 45.29 43.13 42.62 42.28 41.03 42.58 43.18 42.01 42.21 41.98 41.33 40.92
54.07 51.40 50.00 48.39 47.71 47.85 46.30 45.67 45.82 44.13 44.06 43.69 41.98 41.55 41.79 42.20 41.97 41.65 41.21 40.99 40.48 39.87
48.95 48.27 47.74 47.05 47.35 47.87 45.50 44.96 43.82 43.71 42.51 42.22 42.97 42.04 42.37 42.15 42.09 41.61 40.75 40.59 40.20 39.43
48.29 47.70 46.96 46.40 45.50 45.51 45.71 42.90 42.42 43.40 43.21 41.96 42.23 42.55 42.16 41.63 41.61 40.96 40.59 40.61 39.78 39.13
47.78 47.62 45.71 44.62 43.98 44.97 43.76 43.64 43.69 42.05 41.76 42.32 42.06 41.36 42.10 41.64 40.94 40.41 39.97 39.48 38.58 38.41
45.54 44.80 43.06 43.68 42.60 42.00 41.71 40.63 41.07 40.38 39.66 39.37 41.31 37.75 36.59 37.90 40.54 39.55 38.77 38.23 38.59 38.26
42.92 41.52 41.07 40.04 40.72 41.16 42.34 42.00 41.28 41.37 42.67 41.37 41.41 36.66 36.55 36.21 39.61 39.20 39.01 38.62 37.83 36.98
40.34 41.25 41.98 42.25 42.36 42.15 42.01 42.03 41.83 40.46 39.76 39.30 38.84 35.61 35.69 35.59 39.44 39.67 39.02 38.64 38.07 37.25
41.67 42.03 42.24 41.59 41.68 41.48 40.14 39.49 38.72 38.02 38.13 38.25 38.55 35.19 34.65 35.19 38.50 37.99 37.77 38.14 37.92 37.06
42.08 41.83 40.91 39.74 39.00 39.34 38.78 37.41 37.31 36.78 37.50 36.17 36.96 35.65 34.54 34.97 37.46 36.16 36.49 37.02 36.96 33.70
38.96 37.91 37.52 37.43 37.25 36.72 36.51 36.06 35.76 34.67 36.28 36.40 36.06 36.35 34.71 34.38 35.44 36.09 35.66 35.72 36.00 36.21

GFSNIL_sfc_wetblb_066.txt.gz
Wetbulb
62.30 61.53 60.87 60.11 59.08 55.83 53.95 56.36 57.10 55.85 55.30 54.63 53.07 51.28 46.36 49.23 48.51 44.55 44.42 46.86 46.80 46.09
61.51 59.46 59.26 60.17 58.13 54.55 55.01 56.31 55.68 54.81 54.01 52.69 50.28 46.35 46.75 45.46 44.26 43.93 46.01 47.30 46.85 45.68
61.41 61.57 60.57 59.65 57.04 54.87 56.45 56.79 54.57 53.70 51.41 45.60 46.28 46.12 45.45 44.22 43.63 44.25 45.97 46.30 45.79 45.49
60.59 60.31 60.15 58.52 56.39 55.38 55.03 54.57 52.61 50.24 46.21 46.10 44.23 43.97 43.50 42.00 42.75 43.64 45.66 45.93 44.84 44.45
59.37 58.60 54.88 53.20 51.79 52.06 49.79 48.49 46.00 46.31 44.61 44.52 42.78 42.34 41.79 42.97 44.87 45.20 44.39 44.64 44.59 43.70
52.03 51.04 49.61 48.73 47.99 46.93 46.05 45.54 46.01 45.61 43.59 42.51 42.64 43.25 44.38 45.57 45.53 45.30 44.88 44.43 43.84 43.43
49.36 48.81 48.04 47.61 47.46 46.11 46.94 45.07 43.99 44.12 43.55 44.17 44.42 44.34 45.75 45.39 45.00 45.11 44.71 44.35 43.89 43.45
49.08 48.44 47.13 46.71 45.40 45.68 44.29 44.25 44.28 44.21 43.53 44.39 43.89 43.85 43.67 45.31 45.01 44.39 43.98 43.92 43.59 43.66
47.17 47.25 47.34 44.64 43.95 44.57 43.72 42.55 42.04 41.23 41.42 41.77 42.91 40.74 38.56 39.47 43.83 43.77 42.93 42.18 42.77 43.26
47.99 45.54 43.96 42.57 40.95 41.27 41.69 42.29 42.05 43.52 44.07 44.30 45.64 39.20 38.01 36.87 41.69 42.22 42.54 42.55 42.26 41.61
45.00 42.86 42.56 42.77 42.52 43.27 44.34 43.97 45.89 44.91 43.58 43.29 42.74 36.88 36.25 35.44 40.95 41.56 41.81 42.09 42.13 41.70
43.17 42.37 42.87 42.61 42.85 43.70 45.19 44.75 43.40 42.51 41.61 41.28 41.34 36.55 35.53 35.78 39.92 39.69 40.12 40.60 40.88 40.68
45.27 44.18 43.04 43.68 42.88 43.44 43.52 41.57 41.39 40.17 40.89 38.82 40.23 37.24 35.63 35.78 37.32 36.96 38.00 39.17 39.46 36.57
42.14 41.90 41.77 41.18 41.40 42.00 41.70 40.59 40.02 38.47 39.20 38.38 37.37 36.99 34.30 34.02 34.18 34.13 33.57 33.55 34.80 36.86

GFSNIL_sfc_wetblb_069.txt.gz
Wetbulb
65.95 65.19 65.45 63.97 62.79 61.06 59.37 59.69 58.58 56.11 55.29 55.49 55.61 56.76 55.40 51.34 48.94 47.43 48.13 46.71 46.55 47.23
66.18 65.26 64.23 63.77 62.59 61.03 60.13 58.11 56.91 55.66 54.35 54.06 53.76 52.84 49.31 46.12 44.67 45.11 45.53 44.63 45.88 47.04
64.95 64.02 63.16 61.16 60.84 60.11 58.79 56.75 55.51 54.89 53.54 51.76 47.85 47.28 46.26 45.25 45.13 43.84 44.42 44.13 44.98 47.03
64.11 62.60 62.33 60.58 60.40 59.26 57.28 55.62 53.41 50.89 48.27 46.94 45.23 44.63 44.36 43.29 42.83 42.19 42.79 45.00 46.77 45.72
62.37 61.14 59.92 58.60 55.36 52.53 48.39 48.69 46.79 46.30 45.00 44.85 44.39 43.49 42.36 41.70 43.46 42.94 43.55 44.94 46.07 45.17
55.64 53.41 51.43 49.48 47.85 47.30 46.65 46.78 46.40 45.74 44.64 43.59 42.93 42.57 43.20 43.96 44.27 45.47 45.58 46.20 45.24 44.85
50.66 49.39 48.36 47.49 47.35 47.44 47.77 46.87 46.08 45.47 44.39 44.14 44.33 44.34 44.35 44.63 45.26 45.92 45.81 45.83 45.70 44.83
49.22 48.61 48.56 46.90 46.72 46.12 45.94 45.44 44.95 43.93 44.20 44.50 44.28 44.13 45.18 45.61 44.83 45.07 45.18 45.63 45.25 45.46
48.03 47.30 46.65 46.46 46.09 45.58 45.14 44.72 44.29 43.29 43.19 42.86 43.07 40.61 39.51 40.94 44.33 44.03 43.61 43.08 44.02 44.23
48.21 46.59 45.41 44.94 43.98 42.76 42.34 42.46 42.82 44.48 44.62 45.15 46.02 40.86 38.98 37.23 41.57 41.57 41.79 42.08 42.56 42.41
46.28 44.41 43.94 43.29 42.12 42.28 44.20 45.46 46.40 46.55 45.93 44.89 43.92 37.84 36.80 35.62 39.97 40.14 40.64 41.26 41.64 42.18
46.40 43.94 43.54 42.45 43.12 44.78 44.88 46.33 45.36 44.60 43.13 42.05 42.08 36.25 34.94 36.03 39.33 38.99 38.97 39.95 40.11 40.03
44.88 45.36 45.72 45.45 46.30 45.67 44.84 43.56 42.79 41.41 41.85 37.84 41.03 34.11 34.17 34.34 35.69 34.12 34.70 35.80 36.09 34.36
45.53 46.06 45.21 44.13 43.46 42.41 42.12 41.70 41.23 39.59 39.99 38.51 37.52 37.07 33.38 31.82 32.81 32.02 30.29 30.22 31.69 33.69

GFSNIL_sfc_wetblb_072.txt.gz
Wetbulb
63.52 63.17 62.31 62.45 61.63 60.82 59.65 58.10 57.26 57.02 56.54 56.28 55.30 54.61 53.63 49.59 48.37 46.61 46.56 44.75 45.15 45.11
64.17 63.86 63.04 62.79 62.36 60.74 60.06 58.93 57.73 56.53 55.48 53.83 53.00 50.84 48.60 47.14 44.98 45.15 44.68 44.25 44.07 44.62
64.29 64.28 63.91 62.95 60.61 59.51 59.61 57.59 56.33 54.18 53.16 49.68 48.36 47.25 45.95 44.93 44.62 43.85 43.76 44.47 43.51 43.64
63.75 62.01 60.74 59.81 59.70 58.59 57.84 55.78 53.57 49.62 47.55 46.08 45.16 44.54 44.07 43.57 43.38 42.60 42.98 43.48 43.04 43.33
62.34 60.50 59.14 58.08 56.00 54.66 53.43 50.69 48.67 47.08 45.30 44.94 44.88 44.80 43.24 42.46 42.78 41.99 41.90 42.39 42.73 43.39
56.98 53.78 51.53 49.67 49.45 49.28 48.88 46.91 46.57 46.27 45.41 44.21 43.56 43.11 43.06 43.01 43.25 43.50 43.63 43.91 43.14 43.58
51.30 50.37 49.10 48.40 48.67 47.91 47.35 46.28 45.35 45.16 44.41 43.83 43.36 43.24 43.37 44.02 43.88 43.72 44.29 44.45 44.50 43.29
49.08 47.82 47.68 48.18 47.86 46.91 46.24 46.16 44.96 43.99 43.72 43.94 44.13 44.52 44.10 43.98 44.05 42.88 43.35 42.74 43.47 42.65
47.32 47.48 46.67 46.28 45.49 45.23 44.94 44.15 43.61 43.14 43.44 43.32 43.91 41.14 39.79 39.36 40.85 41.28 40.24 38.96 39.77 40.01
47.26 46.23 46.01 45.47 44.98 44.13 43.35 43.43 42.63 42.67 43.20 43.23 42.96 40.49 39.33 37.10 37.96 37.40 37.16 36.62 36.92 38.09
46.07 44.68 44.01 43.29 42.34 42.02 42.09 42.30 43.32 44.15 44.31 43.83 39.19 36.77 36.09 34.70 36.11 35.81 36.42 36.76 36.46 35.50
44.72 43.16 42.71 41.86 42.02 42.82 43.75 44.62 45.06 43.99 41.08 38.91 34.83 34.03 33.81 35.52 34.06 33.85 32.54 34.43 33.70 33.09
44.97 43.73 43.07 43.54 44.26 44.53 44.70 43.99 40.95 39.86 39.67 37.50 32.61 33.59 32.92 32.88 29.94 28.81 28.09 28.97 29.88 31.13
45.05 45.44 45.69 44.99 43.26 41.34 39.82 39.64 36.40 35.09 34.57 35.42 34.33 31.59 31.01 30.72 27.63 25.98 25.62 25.44 25.92 27.22

GFSNIL_sfc_wetblb_075.txt.gz
Wetbulb
58.94 58.48 58.40 58.52 59.67 59.63 59.18 58.98 57.23 56.11 55.24 55.06 55.26 54.57 53.53 50.46 48.15 47.49 46.30 45.96 45.56 45.36
60.24 59.32 58.57 57.93 59.50 59.31 58.27 57.50 56.79 56.01 54.80 53.63 53.33 51.11 49.23 47.65 46.95 46.25 45.41 44.56 44.36 44.54
60.61 60.70 60.31 59.87 58.81 58.13 58.52 57.25 55.82 55.18 53.30 51.10 49.30 48.53 47.11 45.79 45.28 44.60 44.25 44.31 44.09 44.36
61.39 61.37 60.94 59.22 58.09 57.21 56.25 55.46 54.14 51.70 50.80 48.15 46.48 46.03 45.16 44.66 44.63 43.85 43.34 44.18 43.55 43.29
60.64 59.53 58.65 58.70 58.09 56.45 54.15 53.03 50.92 50.44 47.78 45.84 45.43 45.52 44.86 43.95 43.93 43.24 42.41 42.73 42.81 42.87
56.29 55.07 55.05 53.74 52.92 52.12 50.70 50.22 49.31 46.82 45.84 45.40 44.31 43.53 43.79 43.88 43.34 42.99 43.04 43.28 43.11 42.91
52.62 51.39 49.98 49.22 50.27 49.49 48.58 46.90 46.05 45.84 45.00 44.27 44.21 44.17 44.03 43.70 43.60 43.70 44.14 44.12 43.48 42.25
49.15 48.70 48.14 47.69 47.09 46.66 46.14 45.82 45.09 44.52 43.97 43.88 43.41 43.58 43.58 43.92 43.78 43.06 42.71 42.66 43.08 42.31
47.92 46.73 46.17 45.97 45.94 46.25 44.92 44.29 43.96 43.28 42.95 43.00 44.08 41.17 41.01 41.32 39.03 38.99 37.37 35.63 36.07 36.21
46.64 46.25 45.94 45.55 44.75 43.73 42.94 43.11 42.72 42.81 42.88 42.64 42.43 39.44 39.58 37.48 36.77 35.06 34.11 33.18 33.30 34.62
45.68 44.88 44.60 44.09 43.27 42.74 42.90 42.25 41.43 40.89 41.18 39.95 37.10 36.31 35.75 34.78 33.75 32.55 31.90 31.66 31.23 29.87
44.39 43.34 42.65 41.86 41.72 40.56 40.35 40.90 41.54 43.30 36.69 33.36 32.36 34.17 34.54 32.88 30.00 29.94 28.79 29.94 28.81 28.64
43.70 42.95 41.66 41.21 40.41 41.52 42.93 43.17 39.11 36.46 34.50 33.09 31.21 33.25 33.39 30.84 27.04 25.37 24.56 25.61 26.82 28.82
43.02 42.15 41.77 42.17 42.42 41.21 37.28 35.26 31.73 30.68 31.81 30.90 30.29 30.32 31.34 29.60 24.81 24.48 24.99 24.56 24.24 24.49

GFSNIL_sfc_wetblb_078.txt.gz
Wetbulb
59.35 58.39 57.12 56.12 57.36 58.20 58.89 59.44 59.87 60.04 59.78 56.47 55.22 54.66 54.30 51.08 48.59 48.23 48.43 47.55 47.10 46.47
59.52 58.47 57.66 56.85 56.80 59.26 59.29 59.16 58.94 58.73 56.97 55.05 53.60 51.98 49.94 48.76 47.82 48.72 47.26 45.06 46.18 45.99
59.54 59.20 58.49 57.16 57.18 58.10 58.72 57.76 56.99 56.37 55.33 53.85 52.42 50.43 49.31 48.11 47.32 46.23 45.89 45.46 44.85 45.03
59.12 59.09 58.63 57.15 57.39 56.61 56.85 56.89 56.49 55.45 54.07 52.04 51.08 49.19 47.44 46.83 45.88 44.84 44.58 44.73 44.69 44.65
59.75 58.60 58.42 57.82 57.52 57.59 56.13 56.59 56.03 53.27 52.79 50.90 48.70 46.83 45.93 44.78 45.03 44.33 43.90 44.11 43.71 43.24
56.83 58.01 58.95 58.69 57.07 57.85 56.73 53.69 52.15 51.31 49.54 47.24 45.88 45.45 44.88 45.06 44.72 44.49 44.10 43.56 42.78 42.97
54.16 54.14 54.12 54.40 53.50 53.28 52.64 50.13 48.54 48.34 46.71 45.84 44.99 45.09 44.89 44.73 43.82 43.44 43.48 43.97 43.77 43.48
50.12 50.06 50.21 49.81 49.32 49.09 48.04 47.39 47.08 46.34 45.05 44.87 44.76 44.58 44.01 43.91 43.53 43.34 43.02 43.37 42.74 40.83
48.29 48.15 47.66 47.12 47.06 46.00 45.91 44.92 44.57 43.94 43.70 43.05 43.56 40.72 40.86 42.59 42.24 40.60 37.81 35.38 33.57 34.80
48.04 46.58 45.96 46.23 45.77 44.90 44.48 44.05 43.35 43.40 43.78 43.21 43.28 40.08 39.68 37.64 37.12 33.38 32.25 30.53 30.35 31.75
47.01 45.48 45.25 44.71 43.81 43.36 43.59 43.21 42.90 42.70 42.59 41.11 38.43 37.86 36.52 34.80 32.19 30.44 30.03 28.80 28.04 26.71
45.42 44.30 43.95 43.01 42.70 42.90 42.71 42.24 41.82 41.23 35.80 33.30 33.03 35.08 33.93 31.99 29.36 28.44 26.94 27.34 27.30 26.91
44.76 43.95 43.25 42.77 42.12 42.48 42.36 41.84 38.26 34.66 33.06 32.78 31.44 33.76 33.02 30.14 27.07 24.95 24.48 25.51 26.40 27.72
43.91 43.33 42.71 42.27 42.17 40.95 35.97 33.69 33.23 29.98 29.80 29.49 30.22 31.00 31.07 29.38 25.07 24.75 25.29 24.70 24.34 24.56

GFSNIL_sfc_wetblb_081.txt.gz
Wetbulb
54.74 55.53 55.65 55.43 55.47 55.34 55.88 56.71 57.42 58.96 59.56 59.00 58.14 56.61 55.87 53.77 50.93 49.54 49.45 47.79 48.08 48.78
54.81 55.74 56.68 57.06 56.34 55.69 56.23 56.96 57.22 58.81 59.07 56.97 55.87 55.12 53.68 52.22 50.70 49.54 49.25 48.87 48.85 47.90
56.57 58.08 58.39 58.17 56.75 55.21 56.84 57.71 56.67 55.69 54.78 54.58 54.30 53.09 52.45 50.69 49.62 48.73 47.92 48.03 47.85 46.46
56.82 58.42 58.97 58.49 57.32 55.85 57.19 57.05 56.55 55.80 54.58 54.04 52.95 51.68 50.76 49.51 48.52 47.31 45.86 45.43 45.78 45.12
57.76 58.18 58.03 58.13 56.10 57.31 57.18 56.75 57.17 55.99 55.00 53.09 51.75 50.13 48.84 47.45 46.80 46.12 45.01 44.84 45.14 44.65
57.53 58.10 57.37 57.58 56.92 57.02 57.10 57.05 57.15 56.31 53.59 51.19 49.40 48.32 47.78 47.20 46.39 45.73 45.36 44.92 44.29 44.02
56.91 57.19 57.54 56.89 57.46 57.17 57.36 57.12 55.75 54.40 52.44 50.14 48.01 48.08 46.73 45.86 45.09 44.59 44.58 44.31 43.79 43.48
53.34 52.81 53.05 52.83 52.30 51.74 52.19 51.67 51.93 49.26 47.31 46.44 46.61 46.18 46.13 45.08 44.60 43.83 43.10 43.47 43.48 39.67
49.86 50.04 49.91 49.33 48.97 49.10 47.85 48.01 47.43 46.02 45.05 44.20 45.15 42.35 41.34 42.99 43.27 43.01 40.92 35.69 35.23 34.48
49.04 48.34 47.83 47.45 46.37 45.34 44.79 44.94 44.05 43.77 43.81 43.70 43.26 39.98 39.84 38.29 37.70 35.68 34.22 32.87 32.36 30.85
48.14 46.87 46.35 45.61 44.56 43.89 44.06 43.78 43.72 43.82 44.03 43.47 41.76 38.16 36.34 34.79 33.51 31.64 30.35 29.79 27.97 26.57
47.00 45.23 44.44 43.31 43.30 43.38 43.29 43.09 42.55 41.31 39.50 38.02 37.01 35.42 34.23 32.92 31.27 29.00 27.33 27.17 27.05 26.58
45.22 44.28 43.46 43.50 43.18 43.41 43.07 41.47 37.93 34.47 34.77 34.73 33.14 34.07 33.31 31.06 28.62 25.18 25.17 26.04 26.05 27.31
44.64 44.03 43.51 42.83 42.43 40.00 37.77 35.00 32.18 30.65 30.80 31.40 31.29 31.30 31.65 30.40 27.00 26.36 25.61 24.56 23.96 24.11

GFSNIL_sfc_wetblb_084.txt.gz
Wetbulb
52.28 52.33 52.58 52.62 53.23 52.55 52.95 53.34 54.65 56.39 58.09 58.15 58.43 58.09 56.15 55.60 54.95 54.23 52.67 52.00 49.84 49.56
52.27 52.35 52.40 53.22 53.07 53.45 53.44 54.39 54.23 55.24 56.87 56.77 55.93 55.67 55.75 55.69 53.88 52.72 52.97 51.47 49.94 49.75
52.39 52.93 53.55 54.06 54.75 54.94 54.17 54.11 55.28 56.05 56.67 55.85 55.27 55.49 54.68 53.64 52.72 51.47 50.62 51.33 49.92 49.21
52.40 53.33 53.72 54.23 55.15 55.95 55.54 55.53 56.53 56.73 56.39 55.65 55.17 54.30 53.74 53.22 51.72 50.87 50.11 48.38 48.75 48.10
53.57 53.55 54.45 55.83 56.97 57.10 56.17 56.07 57.06 57.01 56.67 56.19 55.65 53.81 52.26 50.83 50.29 49.75 47.40 47.18 47.54 46.50
53.81 54.37 54.87 55.78 56.95 57.39 56.09 56.50 56.71 57.03 56.63 56.81 54.15 51.19 50.65 50.03 48.46 48.55 48.80 47.78 46.73 45.67
53.96 54.42 55.47 56.32 55.76 55.36 56.01 56.13 56.23 56.99 57.23 55.57 52.44 51.19 49.24 48.39 47.42 46.95 46.27 46.14 45.54 44.79
53.07 53.50 53.85 53.25 53.07 54.45 55.81 56.05 56.49 54.08 51.54 50.94 49.78 49.03 48.48 47.04 46.07 45.87 44.68 43.93 42.62 40.37
51.89 52.07 51.91 51.00 50.82 50.30 50.30 49.35 49.17 48.10 46.91 46.04 46.96 43.16 41.90 44.38 44.83 44.19 41.75 36.55 35.27 34.97
50.02 49.14 48.79 48.77 48.61 47.38 46.48 45.90 44.99 44.79 45.45 44.18 43.39 40.14 40.58 40.30 41.83 38.21 35.81 33.50 31.89 31.47
48.74 47.69 46.98 46.60 46.08 44.27 44.41 44.38 43.77 43.84 44.03 43.17 40.17 37.36 36.83 34.98 34.09 32.09 31.74 31.39 30.16 29.92
47.07 45.99 45.09 43.69 43.33 43.66 43.68 43.32 41.69 41.36 40.79 38.55 35.60 35.05 34.42 32.97 31.14 29.38 28.51 28.51 28.57 28.25
46.37 45.09 43.88 43.38 43.22 43.37 41.08 38.37 36.44 35.03 35.08 34.78 33.52 34.19 33.34 31.42 29.08 26.90 26.23 26.70 26.95 27.56
44.67 43.70 43.14 42.15 41.24 38.88 35.98 33.34 31.73 30.51 30.53 30.49 31.11 31.11 31.77 31.25 28.47 27.27 26.37 25.14 24.44 24.92

GFSNIL_sfc_wetblb_090.txt.gz
Wetbulb
60.82 59.93 59.90 60.53 60.36 59.72 60.08 60.99 61.56 61.85 62.08 62.49 62.96 63.21 63.06 62.61 62.28 62.49 62.11 61.80 61.68 61.41
60.15 60.42 59.73 60.16 61.23 61.50 61.03 61.08 62.33 61.46 61.42 61.40 61.44 61.45 61.66 61.18 61.36 61.98 62.39 62.21 62.62 61.78
60.08 60.28 60.35 60.40 59.68 60.33 60.95 60.39 60.23 60.69 61.05 60.65 60.73 61.08 61.36 61.73 61.98 61.37 61.89 60.63 59.46 58.56
60.28 60.26 60.09 60.15 60.55 60.18 60.47 60.46 60.32 60.45 60.98 60.85 60.50 61.43 61.47 61.60 61.42 59.19 57.81 57.79 56.40 55.93
60.57 60.59 60.29 59.91 60.71 61.37 60.76 61.26 60.75 60.51 60.09 60.18 60.65 61.47 60.86 58.85 56.31 55.79 56.03 56.50 56.42 55.20
60.03 60.13 60.32 60.39 60.73 60.60 60.36 60.70 60.91 60.43 60.42 60.23 60.97 60.23 60.12 57.55 55.57 55.87 57.72 57.62 56.35 54.76
59.32 59.78 60.15 60.45 60.50 60.51 60.22 59.66 59.46 59.59 59.88 60.28 60.06 60.18 60.27 59.28 57.30 56.72 57.04 56.52 54.83 53.57
59.48 59.56 59.39 59.36 59.47 59.36 58.80 58.76 59.49 59.93 60.51 61.10 60.92 60.62 60.25 57.57 56.55 55.09 53.38 50.30 48.00 46.01
59.21 59.16 59.11 59.14 59.13 59.48 59.54 59.86 60.27 60.43 60.31 59.93 56.82 43.23 43.60 47.76 52.65 48.89 43.72 38.90 37.57 36.01
59.31 58.77 59.06 59.12 59.26 59.20 59.34 59.57 56.08 50.37 48.05 45.62 43.55 39.34 40.25 40.31 41.99 38.96 36.88 35.55 34.60 33.83
58.16 57.71 57.19 56.74 55.28 50.94 49.17 47.31 46.01 43.49 40.96 38.30 36.71 36.21 36.01 35.39 34.63 33.43 33.00 32.67 32.30 31.67
55.81 52.50 49.33 47.13 46.46 44.79 42.40 40.29 38.79 38.16 36.76 35.18 34.16 34.48 34.11 33.79 32.41 31.14 30.61 30.80 30.76 30.35
48.19 46.72 45.03 43.69 41.33 39.72 38.17 36.07 35.01 33.64 33.86 33.27 32.58 32.98 33.05 32.04 30.75 27.79 27.52 27.17 27.44 28.05
44.67 43.11 41.42 39.53 37.89 35.78 33.85 32.32 30.61 29.57 29.70 30.34 30.97 31.25 31.69 31.32 29.38 28.47 27.75 27.09 26.69 26.78

GFSNIL_sfc_wetblb_093.txt.gz
Wetbulb
58.80 57.28 57.22 59.18 58.67 56.86 56.54 56.41 57.49 58.12 58.60 61.66 62.58 62.66 63.13 63.09 63.90 63.60 62.68 62.60 62.78 61.95
58.70 58.19 57.99 59.40 61.28 60.26 59.26 58.66 59.29 59.32 60.53 61.47 62.86 62.82 63.39 63.05 62.82 62.78 62.70 62.80 63.03 61.84
59.58 60.51 60.64 60.08 60.15 61.62 61.20 61.53 61.87 61.99 62.44 62.58 62.77 63.03 63.16 62.12 62.70 62.02 62.25 62.56 62.00 61.95
60.12 60.60 60.92 60.97 62.29 61.52 61.57 61.30 61.19 62.08 61.76 61.94 62.08 62.78 62.33 62.38 62.44 61.74 61.91 62.03 61.01 60.55
61.39 61.63 61.54 62.02 61.32 62.80 62.49 63.02 62.38 62.15 61.74 61.50 61.99 62.36 61.76 61.04 61.31 61.15 60.80 60.76 59.68 56.37
62.34 62.20 62.14 62.18 62.21 62.59 61.39 61.14 61.33 61.64 61.58 61.50 61.77 61.56 62.09 61.97 61.59 61.37 60.52 59.06 55.83 54.93
61.34 61.70 61.96 62.60 62.76 62.72 62.93 61.99 61.45 62.39 62.22 62.23 61.66 61.46 61.63 61.35 61.50 60.83 59.45 58.26 56.59 56.07
61.61 61.89 61.58 62.03 62.35 62.08 62.12 61.67 61.26 61.32 61.27 61.06 60.67 59.99 60.83 60.67 58.84 59.48 57.96 45.26 41.85 39.53
61.25 60.65 60.99 61.51 61.44 61.36 60.76 60.59 60.23 59.83 59.59 59.11 49.87 40.04 42.48 47.72 51.39 46.15 42.74 37.60 35.66 35.07
60.48 59.85 60.77 60.05 59.78 59.63 59.72 59.35 52.89 48.57 46.02 42.29 40.92 38.56 38.81 38.99 39.06 37.17 35.70 34.76 33.78 32.76
60.52 59.85 59.96 59.87 58.90 53.85 51.20 46.95 42.94 40.35 38.38 36.37 35.52 36.06 36.06 35.11 34.22 32.87 32.44 32.45 32.44 31.06
60.57 59.57 56.04 50.00 46.62 43.75 40.02 37.78 36.65 35.81 34.55 33.75 33.22 34.32 34.25 33.50 31.43 29.82 29.23 29.71 30.09 29.44
52.03 49.05 45.33 42.39 39.63 37.77 36.04 34.19 33.10 31.97 32.32 32.50 31.79 32.72 32.19 31.66 30.19 27.60 27.42 27.90 28.03 29.14
43.72 41.44 39.50 37.36 35.83 34.07 32.37 31.26 30.45 30.29 31.02 31.68 32.30 32.38 32.43 31.93 30.34 29.27 28.46 27.80 27.09 27.50

GFSNIL_sfc_wetblb_096.txt.gz
Wetbulb
57.97 57.23 57.06 56.71 56.32 56.28 55.42 54.99 55.92 56.43 56.81 58.57 58.76 59.42 59.97 59.43 59.36 59.29 59.21 58.21 58.34 57.50
58.44 58.03 57.34 57.19 56.81 56.86 56.68 56.80 56.37 56.48 56.80 57.72 58.60 59.38 59.29 59.20 58.68 59.27 58.79 58.66 58.19 57.97
58.21 57.97 57.76 57.27 56.81 56.87 56.83 57.16 56.83 56.83 56.85 57.04 57.12 59.31 59.10 58.60 58.86 58.52 58.07 58.59 58.16 58.18
58.29 57.76 57.82 57.82 58.02 58.20 57.14 56.95 56.75 56.69 56.72 57.29 57.82 57.93 58.40 58.20 58.65 58.22 58.07 57.75 57.41 57.90
58.84 58.65 58.25 58.22 58.52 58.89 58.73 58.37 57.23 57.53 58.41 58.08 57.97 58.83 58.43 58.10 58.29 57.95 57.21 57.31 57.44 57.54
59.05 58.72 58.67 59.26 58.92 59.54 59.22 59.20 59.11 58.50 58.56 58.88 58.83 58.64 58.40 58.20 57.87 57.78 57.97 57.48 56.83 57.22
59.23 59.14 58.73 59.47 59.50 59.50 59.76 59.35 59.30 59.49 59.32 58.95 58.85 58.79 58.66 58.50 57.84 57.95 57.97 56.46 49.98 44.53
59.77 60.27 60.26 59.70 59.71 59.84 59.82 59.25 59.35 58.75 58.59 58.93 58.82 56.99 54.76 57.40 56.74 54.94 44.33 39.47 37.62 37.00
60.05 60.09 59.81 59.82 59.73 59.55 59.47 59.47 59.55 59.19 57.63 53.39 45.80 39.09 41.16 47.16 44.02 41.45 38.13 35.30 34.49 34.37
59.93 59.56 59.41 59.77 59.56 59.06 58.65 57.78 53.65 45.70 42.50 39.48 38.16 37.49 37.54 36.98 36.77 35.58 34.61 33.44 32.50 32.15
59.24 58.87 59.02 58.74 57.99 51.83 47.05 43.23 39.86 37.69 36.74 35.55 35.28 35.46 34.95 34.07 32.84 31.62 31.25 30.90 30.90 30.78
59.15 58.13 57.39 51.29 44.62 41.91 38.96 36.76 35.23 34.80 33.89 33.19 33.20 33.90 33.05 31.72 30.30 29.32 29.29 30.29 29.78 29.48
54.70 48.60 43.72 40.78 38.13 36.21 34.62 33.04 32.64 31.99 32.23 32.45 31.59 32.92 32.59 31.32 29.97 28.24 27.78 28.25 28.84 29.74
43.75 40.39 37.77 35.51 34.32 32.97 31.88 31.44 30.76 30.73 31.37 31.77 32.17 32.38 32.77 32.27 29.95 28.89 28.06 27.44 26.49 26.81

GFSNIL_sfc_wetblb_099.txt.gz
Wetbulb
55.93 54.79 54.70 54.96 54.59 54.29 54.53 55.20 56.40 56.07 56.63 57.50 58.28 57.86 57.97 57.66 57.63 57.56 57.15 56.20 55.81 55.97
56.63 55.29 54.77 54.61 54.35 54.44 54.95 55.71 56.33 55.96 55.79 55.99 57.55 57.94 58.09 57.68 57.55 57.23 56.62 56.34 55.67 55.67
56.88 56.42 55.56 55.25 54.62 55.47 54.88 55.31 55.52 55.53 55.48 56.06 56.87 57.57 57.49 57.41 57.80 57.35 56.78 56.58 55.59 56.30
57.20 56.37 56.63 55.56 55.58 56.30 56.05 55.63 55.26 55.58 55.60 55.41 55.58 55.36 56.42 56.75 56.86 56.14 56.12 55.67 55.37 56.12
57.28 56.37 55.75 55.80 55.71 56.51 56.10 55.91 55.67 55.34 55.20 55.01 54.82 54.75 54.56 54.50 56.51 55.82 55.45 55.59 55.61 56.01
57.19 55.90 55.58 55.69 56.14 56.39 56.22 55.51 55.59 55.66 54.88 54.95 55.14 55.06 55.26 56.23 56.26 55.79 56.31 56.09 55.01 55.47
57.22 56.79 55.93 56.27 56.60 56.77 57.36 56.57 55.51 55.43 55.35 55.94 56.00 56.08 56.23 56.83 56.34 55.82 53.37 44.99 42.63 40.67
56.79 57.61 57.36 56.80 57.27 56.86 57.72 58.12 57.96 57.40 57.02 56.48 57.05 56.77 56.20 56.14 53.12 46.34 39.67 37.85 36.95 37.15
57.32 57.57 57.04 56.73 56.86 56.69 56.78 57.72 57.32 57.25 57.21 53.52 45.16 39.24 43.07 46.36 43.09 40.37 37.27 34.48 34.43 35.04
57.81 57.56 57.62 57.55 57.03 56.69 55.41 55.72 46.86 43.27 41.77 39.02 38.22 38.00 38.45 38.04 37.41 35.40 34.21 33.46 33.07 33.10
58.00 57.64 57.85 57.43 57.27 53.93 46.66 43.15 39.87 37.69 36.81 35.47 34.97 35.46 35.32 34.38 33.25 32.11 31.69 31.99 31.86 31.67
57.07 57.13 56.73 50.88 43.15 41.34 38.69 36.68 35.24 35.03 34.27 33.11 32.86 33.61 33.62 32.67 31.34 30.07 29.73 30.27 30.45 30.11
56.01 54.65 44.98 41.36 38.61 36.74 35.34 33.47 33.07 32.15 32.73 32.75 31.73 33.10 32.60 31.63 30.00 28.32 28.15 28.68 28.94 30.34
43.01 41.29 38.73 36.29 35.55 34.34 32.89 31.98 31.32 31.09 31.60 31.69 32.21 32.18 32.71 32.19 29.87 28.52 27.26 26.42 26.78 28.74

GFSNIL_sfc_wetblb_102.txt.gz
Wetbulb
56.43 55.98 56.26 56.55 56.16 56.05 55.86 56.04 56.63 56.49 56.22 56.42 56.98 57.37 57.68 57.53 57.05 56.75 55.82 55.50 55.86 56.30
55.75 54.96 55.46 56.11 56.24 56.10 56.44 56.31 56.02 56.05 55.65 55.84 56.23 57.01 57.35 56.97 56.63 56.61 56.32 56.04 55.90 55.48
55.71 54.63 54.53 55.49 54.82 55.08 55.40 56.15 55.86 55.48 55.46 55.51 56.06 56.57 56.97 56.59 56.87 56.45 56.59 56.47 56.00 55.42
56.08 55.30 54.20 53.88 53.64 54.15 54.66 55.27 55.71 55.25 54.95 54.58 54.89 56.08 56.33 56.11 56.47 56.15 55.93 55.52 55.74 55.58
56.72 56.20 54.95 53.91 53.59 54.28 53.43 53.93 54.91 55.66 54.93 54.54 54.18 54.57 55.50 55.70 56.16 55.65 55.07 55.26 53.93 55.34
57.09 56.12 55.60 54.49 54.29 54.88 55.02 54.42 54.01 54.27 54.58 54.85 54.87 54.23 53.94 54.73 54.30 54.63 55.24 55.62 55.54 55.36
56.81 56.12 56.25 55.42 54.76 54.64 55.21 54.51 54.34 54.29 54.11 54.23 54.14 54.19 54.08 53.77 53.48 53.78 53.35 47.00 44.70 42.38
56.46 56.86 56.35 55.68 55.19 55.12 55.13 54.99 54.59 54.55 54.43 54.33 54.11 53.87 53.55 53.63 53.14 51.39 41.11 38.63 37.72 37.60
55.93 56.51 56.13 55.54 55.18 55.12 55.09 55.44 54.99 54.47 53.97 53.51 52.25 41.29 43.28 49.77 46.35 42.21 37.99 35.31 35.25 35.27
56.14 56.01 56.00 55.70 55.25 55.00 54.97 55.49 56.08 53.59 49.42 41.54 39.90 39.21 40.38 39.31 39.41 36.89 35.32 34.24 33.70 33.38
56.36 55.71 56.05 55.81 55.40 55.03 51.69 47.38 42.77 40.03 38.67 36.39 35.92 36.81 36.67 35.79 34.59 33.49 33.19 33.10 33.04 32.35
56.79 56.17 55.98 55.11 54.12 43.42 41.23 39.84 37.69 36.38 35.22 33.79 33.49 34.51 34.56 33.95 32.09 30.84 30.31 30.86 31.57 32.00
56.15 55.67 53.88 45.97 41.71 39.12 37.76 35.08 34.31 32.87 33.21 33.37 32.56 34.03 33.70 32.78 31.10 28.89 28.66 29.49 28.77 29.37
47.25 45.30 42.47 39.36 37.05 34.94 33.40 32.46 31.71 31.22 31.66 31.86 32.17 32.43 32.86 32.10 29.21 28.12 27.77 26.87 26.87 28.54

GFSNIL_sfc_wetblb_105.txt.gz
Wetbulb
56.76 56.99 57.62 57.93 57.22 56.41 56.80 57.59 58.17 58.29 57.78 57.63 57.07 56.87 57.26 56.70 56.48 56.18 55.15 54.73 55.07 54.16
56.23 56.39 56.63 57.13 57.27 56.87 56.92 57.04 57.72 58.15 57.77 57.26 57.47 57.57 57.27 56.60 56.32 56.32 55.80 55.54 55.09 55.24
55.29 56.22 56.53 56.58 56.13 56.39 56.60 56.64 56.32 56.18 56.50 56.64 57.00 57.16 57.00 56.40 56.66 56.34 56.28 56.16 55.34 55.10
55.43 55.34 54.69 55.73 55.97 55.54 56.04 56.08 55.76 55.56 55.23 55.52 55.78 56.36 56.30 56.06 56.16 55.58 55.74 55.70 55.36 55.07
55.83 55.12 53.85 54.42 55.48 55.57 55.38 55.72 55.46 55.38 55.13 54.59 54.63 54.49 54.43 54.29 54.96 55.40 55.03 55.13 54.63 54.91
54.99 54.83 54.28 53.31 52.68 54.30 54.94 55.28 55.66 55.34 54.77 54.35 54.30 54.61 55.00 54.84 55.01 54.48 54.97 54.77 54.55 55.04
55.38 54.85 54.69 54.07 52.81 53.13 53.44 53.40 53.44 54.70 54.51 54.24 54.23 54.13 54.18 54.07 52.84 53.02 54.06 51.42 48.21 45.33
55.37 55.38 55.65 54.30 53.31 53.40 53.99 53.38 53.01 52.95 52.94 52.94 52.72 52.88 51.87 51.84 50.77 50.30 43.34 40.46 38.97 38.20
55.73 55.31 55.03 54.95 54.16 53.25 53.45 53.59 53.44 52.89 52.74 51.88 51.95 45.72 44.44 48.50 49.38 45.74 41.05 36.70 35.90 36.13
55.02 55.54 55.24 55.53 55.16 54.20 52.81 53.09 52.21 51.89 51.35 49.75 45.96 40.56 42.38 41.53 43.16 40.63 38.16 35.54 34.00 33.58
55.53 55.20 55.82 55.01 54.56 54.36 53.95 52.50 49.93 44.94 42.27 39.35 38.41 38.70 39.51 37.92 37.14 35.18 34.43 34.09 33.52 32.01
56.13 55.86 55.46 54.63 53.94 51.75 46.93 43.69 40.43 39.13 37.49 36.14 34.92 36.18 36.04 35.72 33.31 31.84 31.55 32.20 32.38 31.79
56.35 55.66 54.59 54.65 46.44 41.16 40.91 36.54 35.18 33.40 34.06 34.17 33.19 34.75 34.85 34.21 32.26 29.26 28.16 28.94 29.49 30.40
52.68 54.81 50.70 44.82 42.34 38.48 35.00 33.51 32.27 31.30 31.72 32.01 32.55 32.82 33.38 33.20 30.07 28.30 27.43 27.58 28.03 29.27

GFSNIL_sfc_wetblb_108.txt.gz
Wetbulb
57.57 58.27 58.33 57.34 56.61 57.11 57.55 57.41 56.97 56.05 56.18 56.61 56.51 56.21 56.01 55.36 55.18 54.47 53.68 53.03 53.54 53.87
56.67 57.19 57.69 57.88 57.27 57.49 58.25 58.30 57.67 56.73 55.68 55.64 56.29 56.41 56.17 55.98 55.87 55.56 55.30 54.74 54.67 54.83
56.27 56.35 57.15 57.33 56.96 56.75 57.29 58.07 57.97 57.59 57.17 56.49 56.27 56.72 56.43 55.88 55.98 55.82 55.45 55.57 54.93 54.96
53.40 56.39 56.39 56.39 56.47 56.57 56.68 56.92 57.81 57.64 57.35 57.13 56.89 56.74 56.35 56.07 55.84 55.16 55.30 55.33 55.03 54.86
53.60 54.20 53.70 55.70 55.82 56.33 56.10 56.41 56.60 56.76 57.23 56.85 56.97 57.25 56.73 56.00 56.00 55.56 55.14 55.26 54.68 54.55
53.17 53.52 53.76 54.75 55.24 55.62 55.88 55.58 55.42 55.46 55.34 56.28 56.51 56.40 56.45 56.31 55.80 55.74 55.54 55.44 54.87 54.85
53.08 53.77 53.86 53.64 53.74 55.01 55.66 55.16 54.99 55.08 55.10 54.86 54.72 54.97 55.10 55.06 54.51 54.63 54.85 53.74 52.74 51.23
55.48 55.10 54.77 53.94 53.02 53.26 54.12 54.99 55.26 54.85 54.63 54.63 54.12 53.92 54.08 54.14 53.58 52.43 47.39 42.70 40.33 39.46
55.22 55.00 55.05 54.35 53.32 53.04 52.94 52.63 52.58 53.54 53.92 52.63 51.90 45.15 45.27 50.31 52.18 50.06 44.30 38.28 36.54 36.08
54.85 55.04 54.31 54.37 53.72 52.99 52.95 53.19 52.14 51.49 50.52 48.41 48.03 41.73 43.31 43.12 48.26 46.13 41.74 36.73 34.49 33.18
54.45 54.41 54.78 54.29 54.11 53.29 53.00 52.52 51.96 50.52 48.86 45.76 42.90 39.74 40.46 38.90 39.41 37.36 36.48 35.51 34.01 31.82
55.40 54.63 54.77 54.09 53.87 53.45 52.56 49.83 46.70 44.87 42.72 41.43 37.45 37.70 37.44 37.23 34.93 32.93 32.25 32.51 32.12 31.53
49.77 54.79 53.76 53.83 52.91 45.98 47.44 39.99 37.21 34.68 35.01 35.17 34.27 35.71 36.41 35.70 32.88 31.16 30.23 30.47 30.75 31.16
42.33 50.16 54.57 52.49 44.47 41.91 37.34 34.16 32.37 31.61 32.21 32.55 33.35 34.01 34.62 33.71 31.41 29.77 28.98 28.65 28.37 29.01

GFSNIL_sfc_wetblb_111.txt.gz
Wetbulb
59.54 58.88 60.02 58.65 58.69 56.69 56.54 54.92 55.44 54.83 56.41 57.20 56.78 55.78 55.90 55.80 56.76 58.22 57.06 56.41 57.39 58.65
58.73 59.15 58.90 58.47 58.75 58.41 58.02 56.28 56.16 56.38 56.91 57.10 56.61 56.46 56.33 55.76 56.07 55.84 56.03 56.53 57.79 57.93
57.64 58.50 59.02 58.40 57.73 58.38 58.29 56.57 55.70 56.06 56.29 56.68 56.47 56.90 57.01 56.88 56.92 56.65 56.98 57.35 57.30 57.42
56.84 57.90 57.87 57.70 57.55 58.06 58.23 57.95 56.34 55.34 54.81 54.44 54.71 56.02 56.25 56.11 56.51 56.20 57.13 57.43 58.05 56.79
56.73 57.11 57.77 56.87 57.13 57.53 57.29 58.18 57.88 56.83 55.74 54.46 53.77 54.42 55.55 56.16 55.98 55.43 55.05 55.73 55.24 55.16
55.97 56.18 56.54 57.25 56.83 56.93 56.71 56.80 56.88 57.58 56.82 55.72 55.58 55.26 55.32 55.73 55.81 55.38 55.30 55.40 55.20 54.91
56.18 56.92 55.99 56.50 56.27 56.61 56.87 56.65 56.37 56.54 56.82 56.95 56.69 56.17 55.71 55.59 55.98 55.76 55.79 55.66 55.26 54.99
57.01 57.22 56.24 55.58 55.93 56.15 56.22 56.17 55.95 55.70 55.74 55.58 56.00 56.54 56.56 56.44 55.96 55.62 53.79 48.81 46.02 44.11
56.46 56.72 56.53 55.75 55.05 55.32 55.76 55.74 55.50 55.00 54.85 54.44 53.49 45.48 45.11 51.36 53.94 52.14 46.66 40.89 39.02 38.81
56.54 56.60 56.46 56.32 55.38 54.71 54.73 55.30 54.67 54.54 54.51 53.39 53.60 43.83 44.39 44.39 52.51 49.37 43.82 38.79 36.36 34.66
56.21 56.40 56.57 56.75 55.53 55.60 55.54 54.42 53.63 52.94 52.83 52.58 51.82 42.15 42.52 41.11 47.20 44.43 41.38 38.10 36.07 33.96
48.00 55.03 56.09 55.66 55.34 55.65 54.16 54.04 54.04 52.52 51.12 50.17 44.74 38.74 38.52 40.42 38.27 34.83 33.33 33.44 33.24 32.43
43.26 45.34 53.59 55.08 55.18 54.09 53.41 50.89 44.61 41.61 44.24 40.47 38.03 37.22 37.85 37.45 34.38 32.05 31.47 31.96 32.09 32.18
38.86 40.94 43.40 53.26 51.02 48.56 41.85 38.18 35.86 34.73 35.98 37.63 37.63 36.77 36.73 36.40 35.07 32.03 30.57 29.91 29.66 30.06

GFSNIL_sfc_wetblb_114.txt.gz
Wetbulb
61.31 61.18 61.15 62.60 61.58 60.02 58.60 57.05 56.33 55.83 56.47 56.81 56.92 56.86 56.71 57.16 57.91 59.62 61.11 62.30 61.65 60.79
61.03 60.96 60.90 62.64 61.48 58.89 58.88 55.81 54.69 55.37 55.59 56.05 55.81 56.33 56.58 56.51 57.24 59.04 60.15 61.92 62.87 61.56
60.43 61.74 61.93 62.40 59.63 58.37 58.10 56.50 55.04 55.81 56.19 55.83 55.55 55.73 56.50 57.24 58.70 59.77 60.24 59.44 59.27 59.78
59.23 60.90 61.54 61.08 60.54 59.01 58.01 56.35 55.61 56.17 56.13 55.55 56.11 56.32 56.19 57.47 57.21 57.68 58.38 58.93 58.77 58.80
59.26 60.51 60.35 59.40 59.02 59.00 57.35 56.37 56.15 56.07 56.11 56.01 56.67 56.90 57.10 57.61 57.66 57.57 57.29 57.83 57.30 57.94
58.12 58.87 59.53 59.98 59.68 58.78 58.21 57.28 55.87 55.30 54.64 54.90 55.91 56.02 56.33 56.25 56.14 55.62 56.50 56.72 56.66 57.79
58.54 60.17 60.41 60.97 59.81 59.02 58.25 57.31 57.05 55.99 54.98 54.70 54.31 54.39 54.94 55.87 56.14 56.09 55.65 56.13 55.96 55.43
59.10 59.78 59.26 59.59 60.26 59.79 59.09 58.32 57.74 57.46 56.53 55.59 54.92 54.88 54.19 54.25 54.58 55.67 55.18 53.57 52.96 50.63
57.51 57.64 58.38 59.02 58.58 58.89 59.42 59.47 59.40 58.24 56.23 55.32 55.12 46.60 46.23 51.87 54.43 54.86 54.25 46.42 41.60 40.05
56.59 56.45 56.79 58.27 57.86 57.70 57.57 58.36 57.91 57.24 56.85 56.69 55.41 43.88 44.78 44.97 55.10 54.06 48.68 41.81 38.87 36.97
52.03 56.61 57.02 56.82 56.69 57.55 57.69 57.18 56.85 57.00 57.11 56.39 55.53 43.15 43.33 42.79 49.94 46.00 42.53 39.77 37.89 35.64
44.06 46.66 50.99 56.59 56.68 57.43 57.12 56.79 56.41 55.80 55.51 55.33 56.42 41.52 41.34 43.94 42.75 39.92 37.65 38.15 36.91 35.63
40.84 41.94 44.55 46.41 56.12 56.61 57.82 57.10 54.84 52.90 51.25 46.56 49.91 38.77 40.00 43.99 40.58 36.66 34.76 34.19 33.36 32.90
38.64 38.52 40.69 42.35 47.61 53.43 49.73 44.50 40.56 36.01 35.85 36.28 37.51 37.63 37.82 39.46 41.02 36.21 33.23 31.71 30.47 30.64

GFSNIL_sfc_wetblb_117.txt.gz
Wetbulb
65.42 64.48 63.57 63.24 63.12 62.65 63.00 62.67 61.96 61.54 60.27 59.91 59.37 59.22 58.74 58.92 59.30 59.36 59.35 58.80 59.81 61.40
63.99 63.45 62.55 62.80 63.56 63.46 63.39 61.72 61.68 58.81 58.31 58.89 58.59 58.28 58.30 58.23 58.56 59.03 59.38 59.12 59.23 59.63
63.04 63.32 63.02 62.54 62.43 62.58 61.42 60.33 57.36 56.05 56.17 56.41 56.93 57.25 57.35 57.49 58.59 58.45 59.08 60.13 59.32 59.62
62.22 62.50 62.04 62.17 62.39 62.04 60.32 59.12 57.03 55.74 56.01 55.68 55.43 56.15 56.21 56.49 57.53 57.84 58.29 58.91 59.46 59.46
60.99 61.19 61.67 61.53 61.87 61.69 58.98 58.28 55.87 56.13 56.09 55.28 55.26 55.71 55.72 56.15 57.17 57.24 57.52 58.20 59.05 59.52
59.52 60.51 60.93 60.62 60.85 59.64 57.66 56.69 56.15 56.31 55.62 55.06 55.10 55.26 55.72 56.13 56.77 57.38 57.94 58.89 59.54 59.51
58.37 58.99 59.79 61.32 61.06 59.89 57.99 56.47 55.76 55.86 55.77 55.91 55.53 55.56 55.62 56.15 56.19 57.75 58.49 59.04 58.39 58.24
59.74 59.87 60.33 60.34 60.51 60.43 59.04 57.60 56.36 55.65 54.96 54.77 55.12 55.58 55.55 55.66 55.66 56.71 54.90 53.61 53.78 53.38
58.96 59.22 59.76 60.01 60.50 59.76 59.39 58.89 57.43 55.81 55.34 54.03 53.80 46.52 45.07 51.29 54.67 54.68 53.68 52.22 46.05 44.12
56.53 57.13 58.00 59.37 59.24 59.12 59.15 59.75 58.79 57.99 56.47 55.02 54.63 44.71 45.07 44.35 53.60 53.15 53.46 49.94 43.98 39.86
44.54 48.12 54.81 57.11 58.46 58.76 59.07 58.74 57.99 58.46 58.11 56.59 55.66 43.26 43.80 42.90 54.25 53.20 48.62 45.37 44.92 41.41
41.60 42.41 45.35 50.32 56.98 57.98 58.09 58.31 57.87 57.63 56.65 56.70 55.93 41.63 40.54 44.28 45.13 40.67 38.17 37.79 37.97 37.42
40.12 39.60 40.94 43.15 45.58 52.82 57.75 57.99 57.91 54.41 49.69 43.40 46.72 38.69 39.99 44.17 40.67 36.02 34.21 33.56 32.91 33.57
37.04 38.02 38.96 40.28 43.51 46.15 49.40 44.50 39.78 36.63 36.60 37.29 38.63 37.63 38.53 39.65 38.33 35.02 32.44 31.26 30.52 30.99

GFSNIL_sfc_wetblb_120.txt.gz
Wetbulb
64.43 64.53 63.84 63.36 62.45 62.09 62.09 62.13 62.83 62.06 61.67 60.87 60.79 60.70 60.14 60.09 60.29 60.70 59.74 59.24 59.24 59.45
63.24 62.73 62.60 62.76 62.20 61.80 62.14 62.48 61.38 61.79 61.21 60.75 60.39 60.08 59.87 59.17 59.20 60.02 59.89 59.43 58.86 58.80
61.92 62.28 62.49 62.19 61.53 62.00 62.11 60.84 60.37 59.32 59.08 59.13 59.42 59.49 59.07 58.64 58.94 59.11 59.22 59.09 58.52 58.53
61.19 61.61 61.07 61.20 61.99 61.09 60.64 60.51 58.29 56.32 56.67 56.55 56.89 57.71 57.99 57.98 58.32 58.33 58.60 59.04 58.31 57.84
60.42 60.26 60.03 60.16 61.35 61.30 60.06 58.80 57.59 56.47 55.79 55.57 55.85 56.29 56.45 56.43 57.45 57.79 57.81 58.04 57.86 56.88
58.32 58.73 59.35 59.95 60.84 59.97 58.77 57.77 56.31 55.71 55.28 54.99 55.13 55.43 55.81 56.33 56.79 57.51 58.00 57.66 57.61 57.19
57.20 58.32 58.62 60.27 60.11 59.25 58.27 56.49 55.83 55.83 55.65 55.22 55.12 55.37 55.81 56.25 56.79 57.25 57.41 57.82 57.94 57.78
57.66 58.91 59.03 59.37 59.67 59.34 58.02 56.55 56.25 55.89 55.39 55.22 54.86 55.14 55.31 55.49 55.61 55.95 55.46 55.30 56.29 56.25
48.94 57.60 59.11 58.91 58.71 58.92 58.14 56.85 55.73 55.22 54.52 54.47 54.17 45.09 45.81 51.41 54.17 54.22 53.25 51.01 47.32 46.27
44.38 46.89 51.68 57.94 58.65 58.07 57.90 57.60 55.77 55.16 54.52 53.70 53.28 43.46 44.00 45.27 52.79 52.31 51.72 48.76 45.13 42.66
42.09 42.32 44.97 48.73 56.34 57.56 57.65 57.20 56.61 55.59 55.15 54.29 53.62 43.28 43.46 42.01 51.25 50.58 49.80 47.50 46.31 43.41
40.05 40.37 41.40 42.89 45.92 50.01 56.49 56.37 55.39 56.03 55.09 54.52 53.82 41.82 41.82 43.44 49.34 43.44 38.00 37.97 39.27 39.24
38.16 38.10 38.35 39.32 41.38 44.82 48.97 55.83 54.85 45.01 42.84 41.97 46.27 39.11 40.19 44.80 40.70 35.11 33.11 32.96 33.09 34.00
36.66 36.57 36.95 37.29 40.40 41.53 45.06 42.16 38.37 35.26 35.08 35.40 36.20 38.28 39.25 39.98 39.06 34.84 31.92 30.96 30.81 31.54